Darstellungsparameter: Aktuell verwendete Einstellungen:
Skalierung der Graphiken ... ?
xyx+y,   Skalierungsfaktor:      Skalierung: Modus: x, Faktor: 1
Darstellungszeitraum ... ?
Vom - - bis: - -   Zeitraum: 11.08.2019 - 17.08.2019
Min/Max/Avg-Anzeige ... ?
Zeige MMA aktuell
Zeige MMA Monat
Zeige MMA alles
Zeige --A aktuell
Zeige --A Monat
Zeige --A alles
Keine MMA-Anzeige
MMA:
Keine MMA-Graphiken
MMA-Basis: 11.08.2019 - 17.08.2019
Quicknavigation für Darstellung... ?
Tage:      1T, 2T, 3T, 5T -1T -2T -3T -5T +1T +2T +3T +5T
Wochen: 1W, 2W, 3W -1W -2W -3W +1W +2W +3W
Monate: 1M, 3M, 6M -1M -3M -6M +1M +3M +6M
Jahre:    1J, 3J, 5J, 10J -1J -3J -5J -10J +1J +3J +5J +10J
Nutze für die Darstellung ... ?
Originaldaten oder Mittelwerte auf ...
Stundenbasis Tagesbasis Wochenbasis
Monatsbasis Jahresbasis      Datenbasis: Original-Daten
Darstellen als:
Statistik (Auto) Statistik J:M      Darstellung:
Zur Graphik,    zurück zur Übersicht aller Sensoren.
 
Tabellarische Datenbersicht: ?
 
Sensor: Nr:Datum:Temp:Feuchte:Taupunkt:
Aussen-T/F 1 11-08-2019 00:00:00 16 C 84 % 13.3 C
2 11-08-2019 00:05:00 15.9 C 85 % 13.38 C
3 11-08-2019 00:10:00 15.9 C 85 % 13.38 C
4 11-08-2019 00:15:00 15.8 C 85 % 13.28 C
5 11-08-2019 00:20:00 15.8 C 84 % 13.1 C
6 11-08-2019 00:25:00 15.8 C 85 % 13.28 C
7 11-08-2019 00:30:00 15.7 C 84 % 13.01 C
8 11-08-2019 00:35:00 15.7 C 85 % 13.19 C
9 11-08-2019 00:40:00 15.7 C 85 % 13.19 C
10 11-08-2019 00:45:00 15.6 C 85 % 13.09 C
11 11-08-2019 00:50:00 15.6 C 85 % 13.09 C
12 11-08-2019 00:55:00 15.6 C 86 % 13.27 C
13 11-08-2019 01:00:00 15.6 C 87 % 13.45 C
14 11-08-2019 01:05:00 15.6 C 87 % 13.45 C
15 11-08-2019 01:10:00 15.5 C 87 % 13.35 C
16 11-08-2019 01:15:00 15.4 C 87 % 13.25 C
17 11-08-2019 01:20:00 15.4 C 87 % 13.25 C
18 11-08-2019 01:25:00 15.4 C 87 % 13.25 C
19 11-08-2019 01:30:00 15.3 C 87 % 13.15 C
20 11-08-2019 01:35:00 15.3 C 87 % 13.15 C
21 11-08-2019 01:40:00 15.2 C 88 % 13.23 C
22 11-08-2019 01:45:00 15.2 C 88 % 13.23 C
23 11-08-2019 01:50:00 15.3 C 88 % 13.33 C
24 11-08-2019 01:55:00 15.3 C 88 % 13.33 C
25 11-08-2019 02:00:00 15.4 C 88 % 13.42 C
Sensor: Nr:Datum:Temp:Feuchte:Taupunkt:
Aussen-T/F 26 11-08-2019 02:05:00 15.5 C 87 % 13.35 C
27 11-08-2019 02:10:00 15.6 C 87 % 13.45 C
28 11-08-2019 02:15:00 15.7 C 87 % 13.54 C
29 11-08-2019 02:20:00 15.7 C 87 % 13.54 C
30 11-08-2019 02:25:00 15.8 C 86 % 13.46 C
31 11-08-2019 02:30:00 15.8 C 86 % 13.46 C
32 11-08-2019 02:35:00 15.8 C 87 % 13.64 C
33 11-08-2019 02:40:00 15.8 C 86 % 13.46 C
34 11-08-2019 02:45:00 15.8 C 86 % 13.46 C
35 11-08-2019 02:50:00 15.8 C 86 % 13.46 C
36 11-08-2019 02:55:00 15.7 C 85 % 13.19 C
37 11-08-2019 03:00:00 15.7 C 85 % 13.19 C
38 11-08-2019 03:05:00 15.6 C 85 % 13.09 C
39 11-08-2019 03:10:00 15.6 C 86 % 13.27 C
40 11-08-2019 03:15:00 15.4 C 86 % 13.07 C
41 11-08-2019 03:20:00 15.3 C 86 % 12.97 C
42 11-08-2019 03:25:00 15.2 C 86 % 12.88 C
43 11-08-2019 03:30:00 15.1 C 87 % 12.95 C
44 11-08-2019 03:35:00 15.1 C 87 % 12.95 C
45 11-08-2019 03:40:00 15 C 87 % 12.86 C
46 11-08-2019 03:45:00 14.9 C 87 % 12.76 C
47 11-08-2019 03:50:00 14.8 C 88 % 12.83 C
48 11-08-2019 03:55:00 14.8 C 88 % 12.83 C
49 11-08-2019 04:00:00 14.7 C 88 % 12.73 C
50 11-08-2019 04:05:00 14.7 C 88 % 12.73 C
Sensor: Nr:Datum:Temp:Feuchte:Taupunkt:
Aussen-T/F 51 11-08-2019 04:10:00 14.6 C 88 % 12.64 C
52 11-08-2019 04:15:00 14.6 C 88 % 12.64 C
53 11-08-2019 04:20:00 14.6 C 88 % 12.64 C
54 11-08-2019 04:25:00 14.5 C 88 % 12.54 C
55 11-08-2019 04:30:00 14.4 C 88 % 12.44 C
56 11-08-2019 04:35:00 14.3 C 88 % 12.34 C
57 11-08-2019 04:40:00 14.2 C 89 % 12.41 C
58 11-08-2019 04:45:00 14.2 C 89 % 12.41 C
59 11-08-2019 04:50:00 14.2 C 89 % 12.41 C
60 11-08-2019 04:55:00 14.2 C 89 % 12.41 C
61 11-08-2019 05:00:00 14.1 C 89 % 12.32 C
62 11-08-2019 05:05:00 13.9 C 89 % 12.12 C
63 11-08-2019 05:10:00 13.8 C 90 % 12.19 C
64 11-08-2019 05:15:00 13.7 C 90 % 12.09 C
65 11-08-2019 05:20:00 13.7 C 90 % 12.09 C
66 11-08-2019 05:25:00 13.6 C 90 % 11.99 C
67 11-08-2019 05:30:00 13.6 C 90 % 11.99 C
68 11-08-2019 05:35:00 13.4 C 90 % 11.79 C
69 11-08-2019 05:40:00 13.3 C 91 % 11.86 C
70 11-08-2019 05:45:00 13.3 C 91 % 11.86 C
71 11-08-2019 05:50:00 13.3 C 91 % 11.86 C
72 11-08-2019 05:55:00 13.3 C 91 % 11.86 C
73 11-08-2019 06:00:00 13.2 C 91 % 11.76 C
74 11-08-2019 06:05:00 13.2 C 92 % 11.93 C
75 11-08-2019 06:10:00 13.1 C 92 % 11.83 C
Sensor: Nr:Datum:Temp:Feuchte:Taupunkt:
Aussen-T/F 76 11-08-2019 06:15:00 13.1 C 92 % 11.83 C
77 11-08-2019 06:20:00 13.2 C 93 % 12.09 C
78 11-08-2019 06:25:00 13.3 C 93 % 12.19 C
79 11-08-2019 06:30:00 13.5 C 94 % 12.55 C
80 11-08-2019 06:35:00 13.6 C 93 % 12.49 C
81 11-08-2019 06:40:00 13.6 C 93 % 12.49 C
82 11-08-2019 06:45:00 13.7 C 93 % 12.59 C
83 11-08-2019 06:50:00 13.7 C 93 % 12.59 C
84 11-08-2019 06:55:00 13.7 C 93 % 12.59 C
85 11-08-2019 07:00:00 13.7 C 93 % 12.59 C
86 11-08-2019 07:05:00 13.8 C 93 % 12.69 C
87 11-08-2019 07:10:00 13.8 C 93 % 12.69 C
88 11-08-2019 07:15:00 13.8 C 92 % 12.52 C
89 11-08-2019 07:20:00 13.9 C 93 % 12.79 C
90 11-08-2019 07:25:00 13.9 C 93 % 12.79 C
91 11-08-2019 07:30:00 14.1 C 92 % 12.82 C
92 11-08-2019 07:35:00 14.3 C 92 % 13.02 C
93 11-08-2019 07:40:00 14.3 C 92 % 13.02 C
94 11-08-2019 07:45:00 14.3 C 91 % 12.85 C
95 11-08-2019 07:50:00 14.3 C 91 % 12.85 C
96 11-08-2019 07:55:00 14.3 C 92 % 13.02 C
97 11-08-2019 08:00:00 14.4 C 92 % 13.12 C
98 11-08-2019 08:05:00 14.6 C 92 % 13.32 C
99 11-08-2019 08:10:00 14.7 C 92 % 13.41 C
100 11-08-2019 08:15:00 14.8 C 92 % 13.51 C
Sensor: Nr:Datum:Temp:Feuchte:Taupunkt:
Aussen-T/F 101 11-08-2019 08:20:00 14.8 C 92 % 13.51 C
102 11-08-2019 08:25:00 14.9 C 91 % 13.44 C
103 11-08-2019 08:30:00 14.9 C 91 % 13.44 C
104 11-08-2019 08:35:00 15 C 91 % 13.54 C
105 11-08-2019 08:40:00 15.1 C 90 % 13.47 C
106 11-08-2019 08:45:00 15.1 C 91 % 13.64 C
107 11-08-2019 08:50:00 15.2 C 91 % 13.74 C
108 11-08-2019 08:55:00 15.3 C 91 % 13.84 C
109 11-08-2019 09:00:00 15.3 C 90 % 13.67 C
110 11-08-2019 09:05:00 15.3 C 90 % 13.67 C
111 11-08-2019 09:10:00 15.4 C 90 % 13.77 C
112 11-08-2019 09:15:00 15.6 C 91 % 14.14 C
113 11-08-2019 09:20:00 15.8 C 90 % 14.16 C
114 11-08-2019 09:25:00 15.9 C 89 % 14.09 C
115 11-08-2019 09:30:00 16.2 C 86 % 13.86 C
116 11-08-2019 09:35:00 16.6 C 86 % 14.25 C
117 11-08-2019 09:40:00 16.8 C 86 % 14.45 C
118 11-08-2019 09:45:00 16.9 C 84 % 14.18 C
119 11-08-2019 09:50:00 17.2 C 82 % 14.1 C
120 11-08-2019 09:55:00 17.6 C 81 % 14.3 C
121 11-08-2019 10:00:00 17.9 C 78 % 14.01 C
122 11-08-2019 10:05:00 18.3 C 75 % 13.79 C
123 11-08-2019 10:10:00 18.7 C 75 % 14.18 C
124 11-08-2019 10:15:00 18.8 C 75 % 14.28 C
125 11-08-2019 10:20:00 18.9 C 72 % 13.74 C
Sensor: Nr:Datum:Temp:Feuchte:Taupunkt:
Aussen-T/F 126 11-08-2019 10:25:00 19.2 C 71 % 13.82 C
127 11-08-2019 10:30:00 19.5 C 68 % 13.44 C
128 11-08-2019 10:35:00 19.8 C 68 % 13.73 C
129 11-08-2019 10:40:00 20.1 C 65 % 13.32 C
130 11-08-2019 10:45:00 20.3 C 64 % 13.27 C
131 11-08-2019 10:50:00 20.4 C 63 % 13.12 C
132 11-08-2019 10:55:00 20.6 C 63 % 13.31 C
133 11-08-2019 11:00:00 20.7 C 62 % 13.16 C
134 11-08-2019 11:05:00 20.7 C 61 % 12.91 C
135 11-08-2019 11:10:00 20.8 C 60 % 12.76 C
136 11-08-2019 11:15:00 20.8 C 60 % 12.76 C
137 11-08-2019 11:20:00 20.9 C 60 % 12.85 C
138 11-08-2019 11:25:00 21.2 C 60 % 13.13 C
139 11-08-2019 11:30:00 21.3 C 62 % 13.73 C
140 11-08-2019 11:35:00 21.6 C 59 % 13.25 C
141 11-08-2019 11:40:00 21.8 C 57 % 12.91 C
142 11-08-2019 11:45:00 21.8 C 55 % 12.36 C
143 11-08-2019 11:50:00 21.8 C 59 % 13.44 C
144 11-08-2019 11:55:00 21.8 C 56 % 12.64 C
145 11-08-2019 12:00:00 21.8 C 58 % 13.17 C
146 11-08-2019 12:05:00 21.8 C 58 % 13.17 C
147 11-08-2019 12:10:00 21.8 C 58 % 13.17 C
148 11-08-2019 12:15:00 22 C 56 % 12.82 C
149 11-08-2019 12:20:00 22.1 C 57 % 13.19 C
150 11-08-2019 12:25:00 22.2 C 55 % 12.73 C
Sensor: Nr:Datum:Temp:Feuchte:Taupunkt:
Aussen-T/F 151 11-08-2019 12:30:00 22.1 C 55 % 12.64 C
152 11-08-2019 12:35:00 22.2 C 55 % 12.73 C
153 11-08-2019 12:40:00 22.1 C 56 % 12.92 C
154 11-08-2019 12:45:00 22.2 C 54 % 12.45 C
155 11-08-2019 12:50:00 22.3 C 55 % 12.83 C
156 11-08-2019 12:55:00 22.5 C 53 % 12.45 C
157 11-08-2019 13:00:00 22.6 C 50 % 11.66 C
158 11-08-2019 13:05:00 22.6 C 51 % 11.96 C
159 11-08-2019 13:10:00 22.7 C 52 % 12.34 C
160 11-08-2019 13:15:00 22.7 C 51 % 12.05 C
161 11-08-2019 13:20:00 22.7 C 51 % 12.05 C
162 11-08-2019 13:25:00 22.7 C 52 % 12.34 C
163 11-08-2019 13:30:00 22.8 C 51 % 12.14 C
164 11-08-2019 13:35:00 22.7 C 50 % 11.75 C
165 11-08-2019 13:40:00 22.8 C 53 % 12.73 C
166 11-08-2019 13:45:00 22.9 C 51 % 12.23 C
167 11-08-2019 13:50:00 23 C 50 % 12.02 C
168 11-08-2019 13:55:00 23.1 C 51 % 12.42 C
169 11-08-2019 14:00:00 23.1 C 51 % 12.42 C
170 11-08-2019 14:05:00 23.1 C 50 % 12.11 C
171 11-08-2019 14:10:00 23.1 C 52 % 12.71 C
172 11-08-2019 14:15:00 23.2 C 52 % 12.8 C
173 11-08-2019 14:20:00 23.3 C 53 % 13.19 C
174 11-08-2019 14:25:00 23.2 C 51 % 12.51 C
175 11-08-2019 14:30:00 22.9 C 51 % 12.23 C
Sensor: Nr:Datum:Temp:Feuchte:Taupunkt:
Aussen-T/F 176 11-08-2019 14:35:00 22.7 C 51 % 12.05 C
177 11-08-2019 14:40:00 22.6 C 51 % 11.96 C
178 11-08-2019 14:45:00 22.6 C 52 % 12.25 C
179 11-08-2019 14:50:00 22.5 C 58 % 13.83 C
180 11-08-2019 14:55:00 22.4 C 59 % 14 C
181 11-08-2019 15:00:00 22.2 C 56 % 13.01 C
182 11-08-2019 15:05:00 22 C 57 % 13.09 C
183 11-08-2019 15:10:00 21.8 C 55 % 12.36 C
184 11-08-2019 15:15:00 21.7 C 59 % 13.34 C
185 11-08-2019 15:20:00 21.6 C 56 % 12.45 C
186 11-08-2019 15:25:00 21.6 C 62 % 14.01 C
187 11-08-2019 15:30:00 21.4 C 64 % 14.31 C
188 11-08-2019 15:35:00 21.4 C 66 % 14.79 C
189 11-08-2019 15:40:00 21.3 C 63 % 13.97 C
190 11-08-2019 15:45:00 21.2 C 67 % 14.83 C
191 11-08-2019 15:50:00 21 C 65 % 14.17 C
192 11-08-2019 15:55:00 20.9 C 66 % 14.31 C
193 11-08-2019 16:00:00 20.8 C 60 % 12.76 C
194 11-08-2019 16:05:00 20.8 C 66 % 14.22 C
195 11-08-2019 16:10:00 20.7 C 63 % 13.41 C
196 11-08-2019 16:15:00 20.6 C 65 % 13.79 C
197 11-08-2019 16:20:00 20.5 C 65 % 13.7 C
198 11-08-2019 16:25:00 20.4 C 68 % 14.3 C
199 11-08-2019 16:30:00 20.3 C 66 % 13.74 C
200 11-08-2019 16:35:00 20.2 C 73 % 15.21 C
Sensor: Nr:Datum:Temp:Feuchte:Taupunkt:
Aussen-T/F 201 11-08-2019 16:40:00 19.8 C 75 % 15.24 C
202 11-08-2019 16:45:00 19.3 C 78 % 15.37 C
203 11-08-2019 16:50:00 18.8 C 80 % 15.28 C
204 11-08-2019 16:55:00 18.4 C 81 % 15.08 C
205 11-08-2019 17:00:00 18.2 C 83 % 15.27 C
206 11-08-2019 17:05:00 17.8 C 84 % 15.06 C
207 11-08-2019 17:10:00 17.6 C 85 % 15.05 C
208 11-08-2019 17:15:00 17.4 C 86 % 15.03 C
209 11-08-2019 17:20:00 17.2 C 86 % 14.84 C
210 11-08-2019 17:25:00 17.1 C 87 % 14.92 C
211 11-08-2019 17:30:00 17 C 87 % 14.82 C
212 11-08-2019 17:35:00 16.8 C 87 % 14.62 C
213 11-08-2019 17:40:00 16.8 C 89 % 14.98 C
214 11-08-2019 17:45:00 16.8 C 89 % 14.98 C
215 11-08-2019 17:50:00 16.8 C 89 % 14.98 C
216 11-08-2019 17:55:00 16.7 C 90 % 15.05 C
217 11-08-2019 18:00:00 16.7 C 90 % 15.05 C
218 11-08-2019 18:05:00 16.6 C 90 % 14.95 C
219 11-08-2019 18:10:00 16.5 C 90 % 14.85 C
220 11-08-2019 18:15:00 16.5 C 91 % 15.03 C
221 11-08-2019 18:20:00 16.6 C 91 % 15.13 C
222 11-08-2019 18:25:00 16.6 C 91 % 15.13 C
223 11-08-2019 18:30:00 16.6 C 91 % 15.13 C
224 11-08-2019 18:35:00 16.5 C 91 % 15.03 C
225 11-08-2019 18:40:00 16.4 C 91 % 14.93 C
Sensor: Nr:Datum:Temp:Feuchte:Taupunkt:
Aussen-T/F 226 11-08-2019 18:45:00 16.3 C 90 % 14.66 C
227 11-08-2019 18:50:00 16.2 C 90 % 14.56 C
228 11-08-2019 18:55:00 16.2 C 89 % 14.39 C
229 11-08-2019 19:00:00 16.1 C 89 % 14.29 C
230 11-08-2019 19:05:00 16.1 C 89 % 14.29 C
231 11-08-2019 19:10:00 16 C 89 % 14.19 C
232 11-08-2019 19:15:00 15.9 C 88 % 13.92 C
233 11-08-2019 19:20:00 15.9 C 89 % 14.09 C
234 11-08-2019 19:25:00 16 C 89 % 14.19 C
235 11-08-2019 19:30:00 16.1 C 90 % 14.46 C
236 11-08-2019 19:35:00 16.2 C 90 % 14.56 C
237 11-08-2019 19:40:00 16.2 C 91 % 14.73 C
238 11-08-2019 19:45:00 16.2 C 91 % 14.73 C
239 11-08-2019 19:50:00 16.1 C 90 % 14.46 C
240 11-08-2019 19:55:00 16.1 C 91 % 14.63 C
241 11-08-2019 20:00:00 16.1 C 91 % 14.63 C
242 11-08-2019 20:05:00 16 C 91 % 14.53 C
243 11-08-2019 20:10:00 15.9 C 91 % 14.43 C
244 11-08-2019 20:15:00 15.9 C 91 % 14.43 C
245 11-08-2019 20:20:00 15.8 C 91 % 14.33 C
246 11-08-2019 20:25:00 15.8 C 91 % 14.33 C
247 11-08-2019 20:30:00 15.7 C 91 % 14.24 C
248 11-08-2019 20:35:00 15.7 C 91 % 14.24 C
249 11-08-2019 20:40:00 15.6 C 91 % 14.14 C
250 11-08-2019 20:45:00 15.6 C 91 % 14.14 C
Sensor: Nr:Datum:Temp:Feuchte:Taupunkt:
Aussen-T/F 251 11-08-2019 20:50:00 15.6 C 91 % 14.14 C
252 11-08-2019 20:55:00 15.6 C 91 % 14.14 C
253 11-08-2019 21:00:00 15.5 C 91 % 14.04 C
254 11-08-2019 21:05:00 15.4 C 92 % 14.11 C
255 11-08-2019 21:10:00 15.4 C 92 % 14.11 C
256 11-08-2019 21:15:00 15.4 C 92 % 14.11 C
257 11-08-2019 21:20:00 15.3 C 92 % 14.01 C
258 11-08-2019 21:25:00 15.3 C 92 % 14.01 C
259 11-08-2019 21:30:00 15.3 C 92 % 14.01 C
260 11-08-2019 21:35:00 15.2 C 92 % 13.91 C
261 11-08-2019 21:40:00 15.2 C 92 % 13.91 C
262 11-08-2019 21:45:00 15.1 C 92 % 13.81 C
263 11-08-2019 21:50:00 14.9 C 91 % 13.44 C
264 11-08-2019 21:55:00 14.8 C 91 % 13.35 C
265 11-08-2019 22:00:00 14.7 C 91 % 13.25 C
266 11-08-2019 22:05:00 14.6 C 91 % 13.15 C
267 11-08-2019 22:10:00 14.5 C 91 % 13.05 C
268 11-08-2019 22:15:00 14.4 C 91 % 12.95 C
269 11-08-2019 22:20:00 14.3 C 92 % 13.02 C
270 11-08-2019 22:25:00 14.3 C 92 % 13.02 C
271 11-08-2019 22:30:00 14.2 C 92 % 12.92 C
272 11-08-2019 22:35:00 14.2 C 92 % 12.92 C
273 11-08-2019 22:40:00 14.1 C 92 % 12.82 C
274 11-08-2019 22:45:00 14.1 C 92 % 12.82 C
275 11-08-2019 22:50:00 14.1 C 93 % 12.99 C
Sensor: Nr:Datum:Temp:Feuchte:Taupunkt:
Aussen-T/F 276 11-08-2019 22:55:00 14.1 C 93 % 12.99 C
277 11-08-2019 23:00:00 14.1 C 93 % 12.99 C
278 11-08-2019 23:05:00 14.1 C 93 % 12.99 C
279 11-08-2019 23:10:00 14.2 C 93 % 13.08 C
280 11-08-2019 23:15:00 14.2 C 93 % 13.08 C
281 11-08-2019 23:20:00 14.2 C 93 % 13.08 C
282 11-08-2019 23:25:00 14.2 C 93 % 13.08 C
283 11-08-2019 23:30:00 14.2 C 93 % 13.08 C
284 11-08-2019 23:35:00 14.2 C 93 % 13.08 C
285 11-08-2019 23:40:00 14.2 C 94 % 13.25 C
286 11-08-2019 23:45:00 14.3 C 94 % 13.35 C
287 11-08-2019 23:50:00 14.4 C 94 % 13.45 C
288 11-08-2019 23:55:00 14.6 C 94 % 13.65 C
289 12-08-2019 00:00:00 14.7 C 94 % 13.74 C
290 12-08-2019 00:05:00 14.7 C 93 % 13.58 C
291 12-08-2019 00:10:00 14.8 C 93 % 13.68 C
292 12-08-2019 00:15:00 14.8 C 93 % 13.68 C
293 12-08-2019 00:20:00 14.8 C 93 % 13.68 C
294 12-08-2019 00:25:00 14.9 C 93 % 13.78 C
295 12-08-2019 00:30:00 14.8 C 93 % 13.68 C
296 12-08-2019 00:35:00 14.9 C 92 % 13.61 C
297 12-08-2019 00:40:00 15 C 92 % 13.71 C
298 12-08-2019 00:45:00 15 C 92 % 13.71 C
299 12-08-2019 00:50:00 15 C 92 % 13.71 C
300 12-08-2019 00:55:00 14.9 C 91 % 13.44 C
Sensor: Nr:Datum:Temp:Feuchte:Taupunkt:
Aussen-T/F 301 12-08-2019 01:00:00 14.8 C 91 % 13.35 C
302 12-08-2019 01:05:00 14.7 C 91 % 13.25 C
303 12-08-2019 01:10:00 14.6 C 92 % 13.32 C
304 12-08-2019 01:15:00 14.5 C 92 % 13.22 C
305 12-08-2019 01:20:00 14.4 C 92 % 13.12 C
306 12-08-2019 01:25:00 14.3 C 92 % 13.02 C
307 12-08-2019 01:30:00 14.3 C 92 % 13.02 C
308 12-08-2019 01:35:00 14.2 C 92 % 12.92 C
309 12-08-2019 01:40:00 14.1 C 92 % 12.82 C
310 12-08-2019 01:45:00 14.1 C 93 % 12.99 C
311 12-08-2019 01:50:00 14 C 93 % 12.89 C
312 12-08-2019 01:55:00 13.9 C 93 % 12.79 C
313 12-08-2019 02:00:00 13.9 C 93 % 12.79 C
314 12-08-2019 02:05:00 13.8 C 93 % 12.69 C
315 12-08-2019 02:10:00 13.8 C 93 % 12.69 C
316 12-08-2019 02:15:00 13.8 C 93 % 12.69 C
317 12-08-2019 02:20:00 13.7 C 93 % 12.59 C
318 12-08-2019 02:25:00 13.7 C 93 % 12.59 C
319 12-08-2019 02:30:00 13.6 C 93 % 12.49 C
320 12-08-2019 02:35:00 13.6 C 94 % 12.65 C
321 12-08-2019 02:40:00 13.6 C 94 % 12.65 C
322 12-08-2019 02:45:00 13.6 C 94 % 12.65 C
323 12-08-2019 02:50:00 13.5 C 94 % 12.55 C
324 12-08-2019 02:55:00 13.4 C 94 % 12.45 C
325 12-08-2019 03:00:00 13.3 C 94 % 12.36 C
Sensor: Nr:Datum:Temp:Feuchte:Taupunkt:
Aussen-T/F 326 12-08-2019 03:05:00 13.3 C 94 % 12.36 C
327 12-08-2019 03:10:00 13.3 C 94 % 12.36 C
328 12-08-2019 03:15:00 13.2 C 94 % 12.26 C
329 12-08-2019 03:20:00 13.2 C 94 % 12.26 C
330 12-08-2019 03:25:00 13.1 C 94 % 12.16 C
331 12-08-2019 03:30:00 13.1 C 94 % 12.16 C
332 12-08-2019 03:35:00 13.1 C 94 % 12.16 C
333 12-08-2019 03:40:00 13 C 94 % 12.06 C
334 12-08-2019 03:45:00 13 C 94 % 12.06 C
335 12-08-2019 03:50:00 13 C 94 % 12.06 C
336 12-08-2019 03:55:00 12.9 C 94 % 11.96 C
337 12-08-2019 04:00:00 12.9 C 95 % 12.12 C
338 12-08-2019 04:05:00 12.9 C 95 % 12.12 C
339 12-08-2019 04:10:00 12.9 C 95 % 12.12 C
340 12-08-2019 04:15:00 12.9 C 95 % 12.12 C
341 12-08-2019 04:20:00 13 C 95 % 12.22 C
342 12-08-2019 04:25:00 13 C 95 % 12.22 C
343 12-08-2019 04:30:00 12.9 C 95 % 12.12 C
344 12-08-2019 04:35:00 12.9 C 95 % 12.12 C
345 12-08-2019 04:40:00 12.9 C 95 % 12.12 C
346 12-08-2019 04:45:00 12.8 C 95 % 12.02 C
347 12-08-2019 04:50:00 12.8 C 95 % 12.02 C
348 12-08-2019 04:55:00 12.8 C 95 % 12.02 C
349 12-08-2019 05:00:00 12.8 C 95 % 12.02 C
350 12-08-2019 05:05:00 12.8 C 95 % 12.02 C
Sensor: Nr:Datum:Temp:Feuchte:Taupunkt:
Aussen-T/F 351 12-08-2019 05:10:00 12.8 C 95 % 12.02 C
352 12-08-2019 05:15:00 12.8 C 95 % 12.02 C
353 12-08-2019 05:20:00 12.8 C 95 % 12.02 C
354 12-08-2019 05:25:00 12.7 C 95 % 11.92 C
355 12-08-2019 05:30:00 12.6 C 95 % 11.82 C
356 12-08-2019 05:35:00 12.6 C 95 % 11.82 C
357 12-08-2019 05:40:00 12.6 C 95 % 11.82 C
358 12-08-2019 05:45:00 12.6 C 95 % 11.82 C
359 12-08-2019 05:50:00 12.5 C 95 % 11.72 C
360 12-08-2019 05:55:00 12.5 C 95 % 11.72 C
361 12-08-2019 06:00:00 12.5 C 95 % 11.72 C
362 12-08-2019 06:05:00 12.5 C 95 % 11.72 C
363 12-08-2019 06:10:00 12.5 C 95 % 11.72 C
364 12-08-2019 06:15:00 12.5 C 95 % 11.72 C
365 12-08-2019 06:20:00 12.6 C 95 % 11.82 C
366 12-08-2019 06:25:00 12.6 C 96 % 11.98 C
367 12-08-2019 06:30:00 12.7 C 96 % 12.08 C
368 12-08-2019 06:35:00 12.8 C 96 % 12.18 C
369 12-08-2019 06:40:00 12.8 C 96 % 12.18 C
370 12-08-2019 06:45:00 12.9 C 96 % 12.28 C
371 12-08-2019 06:50:00 12.9 C 96 % 12.28 C
372 12-08-2019 06:55:00 13 C 96 % 12.38 C
373 12-08-2019 07:00:00 13 C 96 % 12.38 C
374 12-08-2019 07:05:00 13.1 C 96 % 12.48 C
375 12-08-2019 07:10:00 13.1 C 96 % 12.48 C
Sensor: Nr:Datum:Temp:Feuchte:Taupunkt:
Aussen-T/F 376 12-08-2019 07:15:00 13.1 C 96 % 12.48 C
377 12-08-2019 07:20:00 13.1 C 96 % 12.48 C
378 12-08-2019 07:25:00 13.1 C 96 % 12.48 C
379 12-08-2019 07:30:00 13 C 96 % 12.38 C
380 12-08-2019 07:35:00 13 C 96 % 12.38 C
381 12-08-2019 07:40:00 13 C 96 % 12.38 C
382 12-08-2019 07:45:00 13 C 96 % 12.38 C
383 12-08-2019 07:50:00 13.1 C 96 % 12.48 C
384 12-08-2019 07:55:00 13.1 C 96 % 12.48 C
385 12-08-2019 08:00:00 13.2 C 96 % 12.58 C
386 12-08-2019 08:05:00 13.2 C 96 % 12.58 C
387 12-08-2019 08:10:00 13.2 C 96 % 12.58 C
388 12-08-2019 08:15:00 13.3 C 96 % 12.68 C
389 12-08-2019 08:20:00 13.3 C 96 % 12.68 C
390 12-08-2019 08:25:00 13.4 C 96 % 12.78 C
391 12-08-2019 08:30:00 13.5 C 96 % 12.87 C
392 12-08-2019 08:35:00 13.6 C 96 % 12.97 C
393 12-08-2019 08:40:00 13.7 C 96 % 13.07 C
394 12-08-2019 08:45:00 13.7 C 96 % 13.07 C
395 12-08-2019 08:50:00 13.9 C 96 % 13.27 C
396 12-08-2019 08:55:00 14 C 96 % 13.37 C
397 12-08-2019 09:00:00 14.2 C 96 % 13.57 C
398 12-08-2019 09:05:00 14.3 C 96 % 13.67 C
399 12-08-2019 09:10:00 14.4 C 95 % 13.61 C
400 12-08-2019 09:15:00 14.7 C 94 % 13.74 C
Sensor: Nr:Datum:Temp:Feuchte:Taupunkt:
Aussen-T/F 401 12-08-2019 09:20:00 14.8 C 94 % 13.84 C
402 12-08-2019 09:25:00 15 C 93 % 13.88 C
403 12-08-2019 09:30:00 15.1 C 93 % 13.98 C
404 12-08-2019 09:35:00 15.2 C 92 % 13.91 C
405 12-08-2019 09:40:00 15.3 C 91 % 13.84 C
406 12-08-2019 09:45:00 15.6 C 90 % 13.97 C
407 12-08-2019 09:50:00 15.9 C 89 % 14.09 C
408 12-08-2019 09:55:00 16.1 C 88 % 14.11 C
409 12-08-2019 10:00:00 16.3 C 87 % 14.13 C
410 12-08-2019 10:05:00 16.6 C 87 % 14.43 C
411 12-08-2019 10:10:00 16.8 C 85 % 14.26 C
412 12-08-2019 10:15:00 17.1 C 86 % 14.74 C
413 12-08-2019 10:20:00 17.3 C 84 % 14.57 C
414 12-08-2019 10:25:00 17.6 C 83 % 14.68 C
415 12-08-2019 10:30:00 17.8 C 82 % 14.69 C
416 12-08-2019 10:35:00 18.1 C 80 % 14.6 C
417 12-08-2019 10:40:00 18.3 C 81 % 14.98 C
418 12-08-2019 10:45:00 18.5 C 78 % 14.59 C
419 12-08-2019 10:50:00 18.7 C 79 % 14.99 C
420 12-08-2019 10:55:00 18.7 C 78 % 14.79 C
421 12-08-2019 11:00:00 18.8 C 79 % 15.08 C
422 12-08-2019 11:05:00 19.1 C 78 % 15.18 C
423 12-08-2019 11:10:00 19.3 C 76 % 14.97 C
424 12-08-2019 11:15:00 19.6 C 75 % 15.05 C
425 12-08-2019 11:20:00 19.8 C 75 % 15.24 C
Sensor: Nr:Datum:Temp:Feuchte:Taupunkt:
Aussen-T/F 426 12-08-2019 11:25:00 20.1 C 72 % 14.9 C
427 12-08-2019 11:30:00 20.3 C 72 % 15.09 C
428 12-08-2019 11:35:00 20.4 C 69 % 14.52 C
429 12-08-2019 11:40:00 20.7 C 69 % 14.81 C
430 12-08-2019 11:45:00 20.8 C 70 % 15.13 C
431 12-08-2019 11:50:00 21 C 68 % 14.87 C
432 12-08-2019 11:55:00 21.1 C 68 % 14.97 C
433 12-08-2019 12:00:00 21.1 C 69 % 15.19 C
434 12-08-2019 12:05:00 21.1 C 67 % 14.74 C
435 12-08-2019 12:10:00 21.2 C 70 % 15.51 C
436 12-08-2019 12:15:00 21.3 C 67 % 14.93 C
437 12-08-2019 12:20:00 21.2 C 67 % 14.83 C
438 12-08-2019 12:25:00 21.1 C 66 % 14.5 C
439 12-08-2019 12:30:00 21.1 C 68 % 14.97 C
440 12-08-2019 12:35:00 21.2 C 66 % 14.6 C
441 12-08-2019 12:40:00 21.3 C 63 % 13.97 C
442 12-08-2019 12:45:00 21.4 C 65 % 14.55 C
443 12-08-2019 12:50:00 21.6 C 61 % 13.76 C
444 12-08-2019 12:55:00 21.7 C 59 % 13.34 C
445 12-08-2019 13:00:00 21.7 C 58 % 13.08 C
446 12-08-2019 13:05:00 21.8 C 59 % 13.44 C
447 12-08-2019 13:10:00 21.8 C 59 % 13.44 C
448 12-08-2019 13:15:00 21.8 C 60 % 13.69 C
449 12-08-2019 13:20:00 21.8 C 61 % 13.95 C
450 12-08-2019 13:25:00 21.9 C 61 % 14.04 C
Sensor: Nr:Datum:Temp:Feuchte:Taupunkt:
Aussen-T/F 451 12-08-2019 13:30:00 21.9 C 59 % 13.53 C
452 12-08-2019 13:35:00 21.9 C 62 % 14.29 C
453 12-08-2019 13:40:00 21.8 C 61 % 13.95 C
454 12-08-2019 13:45:00 21.6 C 64 % 14.5 C
455 12-08-2019 13:50:00 21.6 C 63 % 14.26 C
456 12-08-2019 13:55:00 21.7 C 62 % 14.1 C
457 12-08-2019 14:00:00 21.8 C 62 % 14.2 C
458 12-08-2019 14:05:00 21.9 C 62 % 14.29 C
459 12-08-2019 14:10:00 22.1 C 63 % 14.73 C
460 12-08-2019 14:15:00 22.3 C 61 % 14.42 C
461 12-08-2019 14:20:00 22.4 C 61 % 14.51 C
462 12-08-2019 14:25:00 22.5 C 60 % 14.35 C
463 12-08-2019 14:30:00 22.6 C 58 % 13.92 C
464 12-08-2019 14:35:00 22.7 C 61 % 14.79 C
465 12-08-2019 14:40:00 22.9 C 59 % 14.47 C
466 12-08-2019 14:45:00 22.9 C 61 % 14.98 C
467 12-08-2019 14:50:00 23.2 C 58 % 14.48 C
468 12-08-2019 14:55:00 23.3 C 57 % 14.31 C
469 12-08-2019 15:00:00 23.6 C 59 % 15.12 C
470 12-08-2019 15:05:00 23.6 C 56 % 14.31 C
471 12-08-2019 15:10:00 23.7 C 56 % 14.4 C
472 12-08-2019 15:15:00 23.7 C 54 % 13.84 C
473 12-08-2019 15:20:00 23.5 C 54 % 13.66 C
474 12-08-2019 15:25:00 23.3 C 56 % 14.03 C
475 12-08-2019 15:30:00 23.2 C 56 % 13.94 C
Sensor: Nr:Datum:Temp:Feuchte:Taupunkt:
Aussen-T/F 476 12-08-2019 15:35:00 23.4 C 57 % 14.4 C
477 12-08-2019 15:40:00 23.2 C 55 % 13.66 C
478 12-08-2019 15:45:00 23 C 56 % 13.75 C
479 12-08-2019 15:50:00 23.5 C 55 % 13.94 C
480 12-08-2019 15:55:00 24 C 53 % 13.83 C
481 12-08-2019 16:00:00 23.7 C 53 % 13.56 C
482 12-08-2019 16:05:00 23.6 C 54 % 13.75 C
483 12-08-2019 16:10:00 23.4 C 55 % 13.85 C
484 12-08-2019 16:15:00 23.3 C 56 % 14.03 C
485 12-08-2019 16:20:00 23.1 C 57 % 14.12 C
486 12-08-2019 16:25:00 22.9 C 57 % 13.93 C
487 12-08-2019 16:30:00 23 C 58 % 14.29 C
488 12-08-2019 16:35:00 22.9 C 59 % 14.47 C
489 12-08-2019 16:40:00 22.6 C 57 % 13.65 C
490 12-08-2019 16:45:00 21.5 C 63 % 14.16 C
491 12-08-2019 16:50:00 20.5 C 66 % 13.93 C
492 12-08-2019 16:55:00 20 C 67 % 13.69 C
493 12-08-2019 17:00:00 19.7 C 68 % 13.63 C
494 12-08-2019 17:05:00 19.6 C 69 % 13.76 C
495 12-08-2019 17:10:00 19.4 C 67 % 13.12 C
496 12-08-2019 17:15:00 19.1 C 70 % 13.5 C
497 12-08-2019 17:20:00 18.7 C 73 % 13.76 C
498 12-08-2019 17:25:00 18 C 77 % 13.91 C
499 12-08-2019 17:30:00 17.5 C 80 % 14.01 C
500 12-08-2019 17:35:00 17.1 C 83 % 14.19 C
Sensor: Nr:Datum:Temp:Feuchte:Taupunkt:
Aussen-T/F 501 12-08-2019 17:40:00 16.8 C 84 % 14.08 C
502 12-08-2019 17:45:00 16.5 C 85 % 13.97 C
503 12-08-2019 17:50:00 16.2 C 85 % 13.68 C
504 12-08-2019 17:55:00 16.1 C 86 % 13.76 C
505 12-08-2019 18:00:00 16.1 C 88 % 14.11 C
506 12-08-2019 18:05:00 16 C 88 % 14.01 C
507 12-08-2019 18:10:00 16.1 C 89 % 14.29 C
508 12-08-2019 18:15:00 16.1 C 90 % 14.46 C
509 12-08-2019 18:20:00 16.1 C 90 % 14.46 C
510 12-08-2019 18:25:00 15.9 C 90 % 14.26 C
511 12-08-2019 18:30:00 15.8 C 90 % 14.16 C
512 12-08-2019 18:35:00 15.8 C 90 % 14.16 C
513 12-08-2019 18:40:00 15.8 C 91 % 14.33 C
514 12-08-2019 18:45:00 15.8 C 91 % 14.33 C
515 12-08-2019 18:50:00 15.8 C 91 % 14.33 C
516 12-08-2019 18:55:00 15.8 C 92 % 14.5 C
517 12-08-2019 19:00:00 15.8 C 92 % 14.5 C
518 12-08-2019 19:05:00 15.9 C 92 % 14.6 C
519 12-08-2019 19:10:00 15.9 C 92 % 14.6 C
520 12-08-2019 19:15:00 16 C 92 % 14.7 C
521 12-08-2019 19:20:00 16 C 92 % 14.7 C
522 12-08-2019 19:25:00 16 C 92 % 14.7 C
523 12-08-2019 19:30:00 16 C 92 % 14.7 C
524 12-08-2019 19:35:00 16 C 92 % 14.7 C
525 12-08-2019 19:40:00 15.9 C 92 % 14.6 C
Sensor: Nr:Datum:Temp:Feuchte:Taupunkt:
Aussen-T/F 526 12-08-2019 19:45:00 15.9 C 92 % 14.6 C
527 12-08-2019 19:50:00 15.9 C 92 % 14.6 C
528 12-08-2019 19:55:00 15.8 C 92 % 14.5 C
529 12-08-2019 20:00:00 15.9 C 92 % 14.6 C
530 12-08-2019 20:05:00 15.9 C 92 % 14.6 C
531 12-08-2019 20:10:00 15.9 C 93 % 14.77 C
532 12-08-2019 20:15:00 15.9 C 92 % 14.6 C
533 12-08-2019 20:20:00 15.7 C 92 % 14.4 C
534 12-08-2019 20:25:00 15.6 C 91 % 14.14 C
535 12-08-2019 20:30:00 15.4 C 92 % 14.11 C
536 12-08-2019 20:35:00 15.3 C 92 % 14.01 C
537 12-08-2019 20:40:00 15.3 C 92 % 14.01 C
538 12-08-2019 20:45:00 15.2 C 92 % 13.91 C
539 12-08-2019 20:50:00 15.2 C 93 % 14.08 C
540 12-08-2019 20:55:00 15.2 C 93 % 14.08 C
541 12-08-2019 21:00:00 15.2 C 93 % 14.08 C
542 12-08-2019 21:05:00 15.1 C 93 % 13.98 C
543 12-08-2019 21:10:00 15.2 C 93 % 14.08 C
544 12-08-2019 21:15:00 15.2 C 93 % 14.08 C
545 12-08-2019 21:20:00 15.2 C 94 % 14.24 C
546 12-08-2019 21:25:00 15.2 C 93 % 14.08 C
547 12-08-2019 21:30:00 15.2 C 94 % 14.24 C
548 12-08-2019 21:35:00 15.2 C 94 % 14.24 C
549 12-08-2019 21:40:00 15.2 C 94 % 14.24 C
550 12-08-2019 21:45:00 15.2 C 94 % 14.24 C
Sensor: Nr:Datum:Temp:Feuchte:Taupunkt:
Aussen-T/F 551 12-08-2019 21:50:00 15.2 C 94 % 14.24 C
552 12-08-2019 21:55:00 15.2 C 94 % 14.24 C
553 12-08-2019 22:00:00 15.2 C 94 % 14.24 C
554 12-08-2019 22:05:00 15.1 C 94 % 14.14 C
555 12-08-2019 22:10:00 15.1 C 94 % 14.14 C
556 12-08-2019 22:15:00 15.1 C 94 % 14.14 C
557 12-08-2019 22:20:00 15 C 94 % 14.04 C
558 12-08-2019 22:25:00 14.9 C 94 % 13.94 C
559 12-08-2019 22:30:00 14.9 C 94 % 13.94 C
560 12-08-2019 22:35:00 14.9 C 94 % 13.94 C
561 12-08-2019 22:40:00 14.9 C 94 % 13.94 C
562 12-08-2019 22:45:00 14.9 C 94 % 13.94 C
563 12-08-2019 22:50:00 14.9 C 94 % 13.94 C
564 12-08-2019 22:55:00 14.8 C 94 % 13.84 C
565 12-08-2019 23:00:00 14.7 C 94 % 13.74 C
566 12-08-2019 23:05:00 14.7 C 93 % 13.58 C
567 12-08-2019 23:10:00 14.5 C 93 % 13.38 C
568 12-08-2019 23:15:00 14.4 C 93 % 13.28 C
569 12-08-2019 23:20:00 14.2 C 93 % 13.08 C
570 12-08-2019 23:25:00 14.1 C 92 % 12.82 C
571 12-08-2019 23:30:00 13.9 C 92 % 12.62 C
572 12-08-2019 23:35:00 13.8 C 92 % 12.52 C
573 12-08-2019 23:40:00 13.7 C 92 % 12.42 C
574 12-08-2019 23:45:00 13.5 C 92 % 12.23 C
575 12-08-2019 23:50:00 13.4 C 93 % 12.29 C
Sensor: Nr:Datum:Temp:Feuchte:Taupunkt:
Aussen-T/F 576 12-08-2019 23:55:00 13.3 C 93 % 12.19 C
577 13-08-2019 00:00:00 13.4 C 94 % 12.45 C
578 13-08-2019 00:05:00 13.4 C 94 % 12.45 C
579 13-08-2019 00:10:00 13.4 C 94 % 12.45 C
580 13-08-2019 00:15:00 13.5 C 94 % 12.55 C
581 13-08-2019 00:20:00 13.6 C 95 % 12.81 C
582 13-08-2019 00:25:00 13.6 C 95 % 12.81 C
583 13-08-2019 00:30:00 13.7 C 95 % 12.91 C
584 13-08-2019 00:35:00 13.7 C 94 % 12.75 C
585 13-08-2019 00:40:00 13.7 C 94 % 12.75 C
586 13-08-2019 00:45:00 13.6 C 94 % 12.65 C
587 13-08-2019 00:50:00 13.6 C 94 % 12.65 C
588 13-08-2019 00:55:00 13.5 C 94 % 12.55 C
589 13-08-2019 01:00:00 13.4 C 94 % 12.45 C
590 13-08-2019 01:05:00 13.3 C 94 % 12.36 C
591 13-08-2019 01:10:00 13.2 C 94 % 12.26 C
592 13-08-2019 01:15:00 13.2 C 94 % 12.26 C
593 13-08-2019 01:20:00 13.1 C 94 % 12.16 C
594 13-08-2019 01:25:00 13 C 94 % 12.06 C
595 13-08-2019 01:30:00 13 C 94 % 12.06 C
596 13-08-2019 01:35:00 12.9 C 94 % 11.96 C
597 13-08-2019 01:40:00 12.9 C 94 % 11.96 C
598 13-08-2019 01:45:00 12.8 C 95 % 12.02 C
599 13-08-2019 01:50:00 12.8 C 95 % 12.02 C
600 13-08-2019 01:55:00 12.7 C 95 % 11.92 C
Sensor: Nr:Datum:Temp:Feuchte:Taupunkt:
Aussen-T/F 601 13-08-2019 02:00:00 12.7 C 95 % 11.92 C
602 13-08-2019 02:05:00 12.7 C 95 % 11.92 C
603 13-08-2019 02:10:00 12.8 C 95 % 12.02 C
604 13-08-2019 02:15:00 12.8 C 95 % 12.02 C
605 13-08-2019 02:20:00 12.8 C 95 % 12.02 C
606 13-08-2019 02:25:00 12.8 C 95 % 12.02 C
607 13-08-2019 02:30:00 12.8 C 95 % 12.02 C
608 13-08-2019 02:35:00 12.8 C 95 % 12.02 C
609 13-08-2019 02:40:00 12.8 C 95 % 12.02 C
610 13-08-2019 02:45:00 12.9 C 96 % 12.28 C
611 13-08-2019 02:50:00 13 C 96 % 12.38 C
612 13-08-2019 02:55:00 13.1 C 96 % 12.48 C
613 13-08-2019 03:00:00 13.1 C 96 % 12.48 C
614 13-08-2019 03:05:00 13.1 C 96 % 12.48 C
615 13-08-2019 03:10:00 13.1 C 96 % 12.48 C
616 13-08-2019 03:15:00 13 C 96 % 12.38 C
617 13-08-2019 03:20:00 12.9 C 95 % 12.12 C
618 13-08-2019 03:25:00 12.8 C 95 % 12.02 C
619 13-08-2019 03:30:00 12.8 C 95 % 12.02 C
620 13-08-2019 03:35:00 12.8 C 95 % 12.02 C
621 13-08-2019 03:40:00 12.8 C 95 % 12.02 C
622 13-08-2019 03:45:00 12.8 C 96 % 12.18 C
623 13-08-2019 03:50:00 12.8 C 96 % 12.18 C
624 13-08-2019 03:55:00 12.8 C 96 % 12.18 C
625 13-08-2019 04:00:00 12.8 C 96 % 12.18 C
Sensor: Nr:Datum:Temp:Feuchte:Taupunkt:
Aussen-T/F 626 13-08-2019 04:05:00 12.9 C 96 % 12.28 C
627 13-08-2019 04:10:00 13 C 96 % 12.38 C
628 13-08-2019 04:15:00 13.1 C 96 % 12.48 C
629 13-08-2019 04:20:00 13.2 C 96 % 12.58 C
630 13-08-2019 04:25:00 13.3 C 96 % 12.68 C
631 13-08-2019 04:30:00 13.4 C 96 % 12.78 C
632 13-08-2019 04:35:00 13.5 C 96 % 12.87 C
633 13-08-2019 04:40:00 13.6 C 96 % 12.97 C
634 13-08-2019 04:45:00 13.5 C 96 % 12.87 C
635 13-08-2019 04:50:00 13.5 C 95 % 12.72 C
636 13-08-2019 04:55:00 13.5 C 95 % 12.72 C
637 13-08-2019 05:00:00 13.5 C 95 % 12.72 C
638 13-08-2019 05:05:00 13.4 C 95 % 12.62 C
639 13-08-2019 05:10:00 13.4 C 95 % 12.62 C
640 13-08-2019 05:15:00 13.3 C 95 % 12.52 C
641 13-08-2019 05:20:00 13.2 C 95 % 12.42 C
642 13-08-2019 05:25:00 13.2 C 95 % 12.42 C
643 13-08-2019 05:30:00 13.2 C 95 % 12.42 C
644 13-08-2019 05:35:00 13.1 C 95 % 12.32 C
645 13-08-2019 05:40:00 13.1 C 95 % 12.32 C
646 13-08-2019 05:45:00 13 C 95 % 12.22 C
647 13-08-2019 05:50:00 12.9 C 95 % 12.12 C
648 13-08-2019 05:55:00 12.9 C 95 % 12.12 C
649 13-08-2019 06:00:00 12.9 C 95 % 12.12 C
650 13-08-2019 06:05:00 12.9 C 95 % 12.12 C
Sensor: Nr:Datum:Temp:Feuchte:Taupunkt:
Aussen-T/F 651 13-08-2019 06:10:00 12.8 C 95 % 12.02 C
652 13-08-2019 06:15:00 12.8 C 95 % 12.02 C
653 13-08-2019 06:20:00 12.8 C 95 % 12.02 C
654 13-08-2019 06:25:00 12.7 C 95 % 11.92 C
655 13-08-2019 06:30:00 12.7 C 95 % 11.92 C
656 13-08-2019 06:35:00 12.6 C 95 % 11.82 C
657 13-08-2019 06:40:00 12.6 C 95 % 11.82 C
658 13-08-2019 06:45:00 12.7 C 95 % 11.92 C
659 13-08-2019 06:50:00 12.7 C 96 % 12.08 C
660 13-08-2019 06:55:00 12.8 C 96 % 12.18 C
661 13-08-2019 07:00:00 12.8 C 96 % 12.18 C
662 13-08-2019 07:05:00 12.9 C 96 % 12.28 C
663 13-08-2019 07:10:00 12.9 C 96 % 12.28 C
664 13-08-2019 07:15:00 12.9 C 96 % 12.28 C
665 13-08-2019 07:20:00 12.9 C 96 % 12.28 C
666 13-08-2019 07:25:00 12.9 C 95 % 12.12 C
667 13-08-2019 07:30:00 12.9 C 95 % 12.12 C
668 13-08-2019 07:35:00 12.9 C 95 % 12.12 C
669 13-08-2019 07:40:00 12.9 C 95 % 12.12 C
670 13-08-2019 07:45:00 12.9 C 95 % 12.12 C
671 13-08-2019 07:50:00 12.9 C 94 % 11.96 C
672 13-08-2019 07:55:00 13 C 94 % 12.06 C
673 13-08-2019 08:00:00 13 C 94 % 12.06 C
674 13-08-2019 08:05:00 13.1 C 94 % 12.16 C
675 13-08-2019 08:10:00 13.1 C 94 % 12.16 C
Sensor: Nr:Datum:Temp:Feuchte:Taupunkt:
Aussen-T/F 676 13-08-2019 08:15:00 13.2 C 94 % 12.26 C
677 13-08-2019 08:20:00 13.2 C 93 % 12.09 C
678 13-08-2019 08:25:00 13.3 C 93 % 12.19 C
679 13-08-2019 08:30:00 13.3 C 94 % 12.36 C
680 13-08-2019 08:35:00 13.4 C 93 % 12.29 C
681 13-08-2019 08:40:00 13.6 C 92 % 12.33 C
682 13-08-2019 08:45:00 13.7 C 92 % 12.42 C
683 13-08-2019 08:50:00 13.8 C 90 % 12.19 C
684 13-08-2019 08:55:00 14 C 90 % 12.39 C
685 13-08-2019 09:00:00 14.2 C 89 % 12.41 C
686 13-08-2019 09:05:00 14.3 C 89 % 12.51 C
687 13-08-2019 09:10:00 14.5 C 89 % 12.71 C
688 13-08-2019 09:15:00 14.6 C 88 % 12.64 C
689 13-08-2019 09:20:00 14.7 C 88 % 12.73 C
690 13-08-2019 09:25:00 14.8 C 88 % 12.83 C
691 13-08-2019 09:30:00 14.9 C 87 % 12.76 C
692 13-08-2019 09:35:00 15.1 C 87 % 12.95 C
693 13-08-2019 09:40:00 15.2 C 86 % 12.88 C
694 13-08-2019 09:45:00 15.3 C 86 % 12.97 C
695 13-08-2019 09:50:00 15.3 C 83 % 12.43 C
696 13-08-2019 09:55:00 15.3 C 82 % 12.25 C
697 13-08-2019 10:00:00 15.5 C 79 % 11.88 C
698 13-08-2019 10:05:00 15.8 C 78 % 11.97 C
699 13-08-2019 10:10:00 15.9 C 76 % 11.68 C
700 13-08-2019 10:15:00 16.2 C 76 % 11.97 C
Sensor: Nr:Datum:Temp:Feuchte:Taupunkt:
Aussen-T/F 701 13-08-2019 10:20:00 16.2 C 76 % 11.97 C
702 13-08-2019 10:25:00 16.3 C 75 % 11.86 C
703 13-08-2019 10:30:00 16.3 C 75 % 11.86 C
704 13-08-2019 10:35:00 16.2 C 73 % 11.36 C
705 13-08-2019 10:40:00 16.3 C 72 % 11.25 C
706 13-08-2019 10:45:00 16.6 C 73 % 11.74 C
707 13-08-2019 10:50:00 16.7 C 72 % 11.63 C
708 13-08-2019 10:55:00 16.7 C 71 % 11.42 C
709 13-08-2019 11:00:00 16.8 C 70 % 11.3 C
710 13-08-2019 11:05:00 16.8 C 69 % 11.09 C
711 13-08-2019 11:10:00 16.8 C 68 % 10.87 C
712 13-08-2019 11:15:00 16.9 C 69 % 11.18 C
713 13-08-2019 11:20:00 17.1 C 66 % 10.7 C
714 13-08-2019 11:25:00 17.1 C 65 % 10.47 C
715 13-08-2019 11:30:00 17.2 C 68 % 11.25 C
716 13-08-2019 11:35:00 17.3 C 68 % 11.34 C
717 13-08-2019 11:40:00 17.3 C 66 % 10.89 C
718 13-08-2019 11:45:00 17.6 C 68 % 11.63 C
719 13-08-2019 11:50:00 17.6 C 64 % 10.72 C
720 13-08-2019 11:55:00 17.6 C 66 % 11.18 C
721 13-08-2019 12:00:00 17.6 C 66 % 11.18 C
722 13-08-2019 12:05:00 17.7 C 66 % 11.27 C
723 13-08-2019 12:10:00 17.9 C 64 % 11 C
724 13-08-2019 12:15:00 18.2 C 62 % 10.81 C
725 13-08-2019 12:20:00 18.3 C 62 % 10.9 C
Sensor: Nr:Datum:Temp:Feuchte:Taupunkt:
Aussen-T/F 726 13-08-2019 12:25:00 18.3 C 61 % 10.66 C
727 13-08-2019 12:30:00 18.2 C 66 % 11.75 C
728 13-08-2019 12:35:00 17.9 C 64 % 11 C
729 13-08-2019 12:40:00 18.1 C 63 % 10.95 C
730 13-08-2019 12:45:00 18.3 C 62 % 10.9 C
731 13-08-2019 12:50:00 18.5 C 63 % 11.33 C
732 13-08-2019 12:55:00 18.6 C 62 % 11.18 C
733 13-08-2019 13:00:00 18.6 C 60 % 10.69 C
734 13-08-2019 13:05:00 18.7 C 61 % 11.03 C
735 13-08-2019 13:10:00 18.8 C 58 % 10.37 C
736 13-08-2019 13:15:00 18.9 C 56 % 9.94 C
737 13-08-2019 13:20:00 18.9 C 58 % 10.46 C
738 13-08-2019 13:25:00 19 C 57 % 10.3 C
739 13-08-2019 13:30:00 19 C 54 % 9.49 C
740 13-08-2019 13:35:00 18.9 C 55 % 9.67 C
741 13-08-2019 13:40:00 19.1 C 51 % 8.73 C
742 13-08-2019 13:45:00 19.3 C 54 % 9.77 C
743 13-08-2019 13:50:00 19.4 C 54 % 9.86 C
744 13-08-2019 13:55:00 19.7 C 50 % 8.99 C
745 13-08-2019 14:00:00 19.8 C 50 % 9.09 C
746 13-08-2019 14:05:00 19.9 C 52 % 9.76 C
747 13-08-2019 14:10:00 19.9 C 52 % 9.76 C
748 13-08-2019 14:15:00 19.8 C 52 % 9.67 C
749 13-08-2019 14:20:00 19.7 C 54 % 10.14 C
750 13-08-2019 14:25:00 19.5 C 56 % 10.5 C
Sensor: Nr:Datum:Temp:Feuchte:Taupunkt:
Aussen-T/F 751 13-08-2019 14:30:00 19.6 C 55 % 10.32 C
752 13-08-2019 14:35:00 19.7 C 51 % 9.29 C
753 13-08-2019 14:40:00 19.9 C 57 % 11.14 C
754 13-08-2019 14:45:00 20.2 C 53 % 10.32 C
755 13-08-2019 14:50:00 20.3 C 51 % 9.84 C
756 13-08-2019 14:55:00 20.2 C 51 % 9.75 C
757 13-08-2019 15:00:00 20.3 C 52 % 10.13 C
758 13-08-2019 15:05:00 20.6 C 53 % 10.69 C
759 13-08-2019 15:10:00 20.9 C 51 % 10.39 C
760 13-08-2019 15:15:00 21 C 51 % 10.48 C
761 13-08-2019 15:20:00 21.2 C 49 % 10.07 C
762 13-08-2019 15:25:00 21.5 C 51 % 10.94 C
763 13-08-2019 15:30:00 21.7 C 49 % 10.53 C
764 13-08-2019 15:35:00 21.5 C 49 % 10.34 C
765 13-08-2019 15:40:00 21.6 C 49 % 10.44 C
766 13-08-2019 15:45:00 21.7 C 51 % 11.13 C
767 13-08-2019 15:50:00 21.7 C 49 % 10.53 C
768 13-08-2019 15:55:00 21.6 C 50 % 10.74 C
769 13-08-2019 16:00:00 21.5 C 50 % 10.65 C
770 13-08-2019 16:05:00 21.6 C 52 % 11.33 C
771 13-08-2019 16:10:00 21.4 C 50 % 10.55 C
772 13-08-2019 16:15:00 21.2 C 52 % 10.96 C
773 13-08-2019 16:20:00 20.9 C 51 % 10.39 C
774 13-08-2019 16:25:00 20.8 C 55 % 11.43 C
775 13-08-2019 16:30:00 21.1 C 51 % 10.58 C
Sensor: Nr:Datum:Temp:Feuchte:Taupunkt:
Aussen-T/F 776 13-08-2019 16:35:00 21.3 C 52 % 11.05 C
777 13-08-2019 16:40:00 21.2 C 52 % 10.96 C
778 13-08-2019 16:45:00 21.5 C 51 % 10.94 C
779 13-08-2019 16:50:00 21.9 C 48 % 10.4 C
780 13-08-2019 16:55:00 22.2 C 47 % 10.36 C
781 13-08-2019 17:00:00 22.3 C 47 % 10.45 C
782 13-08-2019 17:05:00 22.4 C 45 % 9.89 C
783 13-08-2019 17:10:00 22.2 C 46 % 10.04 C
784 13-08-2019 17:15:00 21.6 C 49 % 10.44 C
785 13-08-2019 17:20:00 21.1 C 51 % 10.58 C
786 13-08-2019 17:25:00 20.8 C 53 % 10.88 C
787 13-08-2019 17:30:00 20.7 C 51 % 10.21 C
788 13-08-2019 17:35:00 20.7 C 54 % 11.07 C
789 13-08-2019 17:40:00 20.9 C 53 % 10.97 C
790 13-08-2019 17:45:00 20.9 C 52 % 10.68 C
791 13-08-2019 17:50:00 20.8 C 53 % 10.88 C
792 13-08-2019 17:55:00 20.7 C 52 % 10.5 C
793 13-08-2019 18:00:00 20.7 C 55 % 11.34 C
794 13-08-2019 18:05:00 20.7 C 53 % 10.78 C
795 13-08-2019 18:10:00 20.7 C 52 % 10.5 C
796 13-08-2019 18:15:00 21.2 C 54 % 11.53 C
797 13-08-2019 18:20:00 21.6 C 50 % 10.74 C
798 13-08-2019 18:25:00 21.8 C 49 % 10.62 C
799 13-08-2019 18:30:00 21.9 C 48 % 10.4 C
800 13-08-2019 18:35:00 21.7 C 51 % 11.13 C
Sensor: Nr:Datum:Temp:Feuchte:Taupunkt:
Aussen-T/F 801 13-08-2019 18:40:00 21.4 C 50 % 10.55 C
802 13-08-2019 18:45:00 21.1 C 52 % 10.87 C
803 13-08-2019 18:50:00 20.8 C 54 % 11.16 C
804 13-08-2019 18:55:00 20.5 C 54 % 10.88 C
805 13-08-2019 19:00:00 20.3 C 57 % 11.51 C
806 13-08-2019 19:05:00 20.1 C 59 % 11.84 C
807 13-08-2019 19:10:00 19.9 C 60 % 11.91 C
808 13-08-2019 19:15:00 19.8 C 57 % 11.04 C
809 13-08-2019 19:20:00 19.6 C 59 % 11.37 C
810 13-08-2019 19:25:00 19.3 C 59 % 11.09 C
811 13-08-2019 19:30:00 18.5 C 62 % 11.09 C
812 13-08-2019 19:35:00 17.9 C 67 % 11.69 C
813 13-08-2019 19:40:00 17.3 C 72 % 12.21 C
814 13-08-2019 19:45:00 16.9 C 72 % 11.82 C
815 13-08-2019 19:50:00 16.6 C 75 % 12.15 C
816 13-08-2019 19:55:00 16.2 C 78 % 12.36 C
817 13-08-2019 20:00:00 15.9 C 81 % 12.65 C
818 13-08-2019 20:05:00 15.6 C 82 % 12.54 C
819 13-08-2019 20:10:00 15.4 C 84 % 12.71 C
820 13-08-2019 20:15:00 15.2 C 85 % 12.7 C
821 13-08-2019 20:20:00 15 C 86 % 12.68 C
822 13-08-2019 20:25:00 14.8 C 87 % 12.66 C
823 13-08-2019 20:30:00 14.7 C 88 % 12.73 C
824 13-08-2019 20:35:00 14.6 C 88 % 12.64 C
825 13-08-2019 20:40:00 14.6 C 89 % 12.81 C
Sensor: Nr:Datum:Temp:Feuchte:Taupunkt:
Aussen-T/F 826 13-08-2019 20:45:00 14.5 C 90 % 12.88 C
827 13-08-2019 20:50:00 14.4 C 90 % 12.78 C
828 13-08-2019 20:55:00 14.3 C 90 % 12.68 C
829 13-08-2019 21:00:00 14.3 C 90 % 12.68 C
830 13-08-2019 21:05:00 14.2 C 91 % 12.75 C
831 13-08-2019 21:10:00 14.2 C 91 % 12.75 C
832 13-08-2019 21:15:00 14.2 C 91 % 12.75 C
833 13-08-2019 21:20:00 14.1 C 91 % 12.65 C
834 13-08-2019 21:25:00 14 C 91 % 12.56 C
835 13-08-2019 21:30:00 13.9 C 91 % 12.46 C
836 13-08-2019 21:35:00 13.9 C 92 % 12.62 C
837 13-08-2019 21:40:00 13.8 C 92 % 12.52 C
838 13-08-2019 21:45:00 13.8 C 92 % 12.52 C
839 13-08-2019 21:50:00 13.8 C 92 % 12.52 C
840 13-08-2019 21:55:00 13.7 C 92 % 12.42 C
841 13-08-2019 22:00:00 13.7 C 92 % 12.42 C
842 13-08-2019 22:05:00 13.7 C 92 % 12.42 C
843 13-08-2019 22:10:00 13.7 C 92 % 12.42 C
844 13-08-2019 22:15:00 13.7 C 92 % 12.42 C
845 13-08-2019 22:20:00 13.6 C 92 % 12.33 C
846 13-08-2019 22:25:00 13.6 C 93 % 12.49 C
847 13-08-2019 22:30:00 13.6 C 93 % 12.49 C
848 13-08-2019 22:35:00 13.6 C 93 % 12.49 C
849 13-08-2019 22:40:00 13.6 C 93 % 12.49 C
850 13-08-2019 22:45:00 13.6 C 93 % 12.49 C
Sensor: Nr:Datum:Temp:Feuchte:Taupunkt:
Aussen-T/F 851 13-08-2019 22:50:00 13.6 C 93 % 12.49 C
852 13-08-2019 22:55:00 13.6 C 93 % 12.49 C
853 13-08-2019 23:00:00 13.5 C 93 % 12.39 C
854 13-08-2019 23:05:00 13.5 C 93 % 12.39 C
855 13-08-2019 23:10:00 13.4 C 93 % 12.29 C
856 13-08-2019 23:15:00 13.4 C 93 % 12.29 C
857 13-08-2019 23:20:00 13.4 C 93 % 12.29 C
858 13-08-2019 23:25:00 13.4 C 93 % 12.29 C
859 13-08-2019 23:30:00 13.3 C 93 % 12.19 C
860 13-08-2019 23:35:00 13.3 C 93 % 12.19 C
861 13-08-2019 23:40:00 13.3 C 93 % 12.19 C
862 13-08-2019 23:45:00 13.3 C 93 % 12.19 C
863 13-08-2019 23:50:00 13.3 C 93 % 12.19 C
864 13-08-2019 23:55:00 13.3 C 93 % 12.19 C
865 14-08-2019 00:00:00 13.3 C 93 % 12.19 C
866 14-08-2019 00:05:00 13.2 C 93 % 12.09 C
867 14-08-2019 00:10:00 13.2 C 93 % 12.09 C
868 14-08-2019 00:15:00 13.1 C 93 % 11.99 C
869 14-08-2019 00:20:00 13.1 C 93 % 11.99 C
870 14-08-2019 00:25:00 13.1 C 93 % 11.99 C
871 14-08-2019 00:30:00 13 C 93 % 11.9 C
872 14-08-2019 00:35:00 13 C 93 % 11.9 C
873 14-08-2019 00:40:00 13 C 94 % 12.06 C
874 14-08-2019 00:45:00 12.9 C 93 % 11.8 C
875 14-08-2019 00:50:00 12.9 C 93 % 11.8 C
Sensor: Nr:Datum:Temp:Feuchte:Taupunkt:
Aussen-T/F 876 14-08-2019 00:55:00 12.8 C 93 % 11.7 C
877 14-08-2019 01:00:00 12.8 C 93 % 11.7 C
878 14-08-2019 01:05:00 12.7 C 93 % 11.6 C
879 14-08-2019 01:10:00 12.7 C 93 % 11.6 C
880 14-08-2019 01:15:00 12.6 C 93 % 11.5 C
881 14-08-2019 01:20:00 12.6 C 93 % 11.5 C
882 14-08-2019 01:25:00 12.6 C 94 % 11.66 C
883 14-08-2019 01:30:00 12.6 C 94 % 11.66 C
884 14-08-2019 01:35:00 12.6 C 93 % 11.5 C
885 14-08-2019 01:40:00 12.6 C 93 % 11.5 C
886 14-08-2019 01:45:00 12.6 C 93 % 11.5 C
887 14-08-2019 01:50:00 12.5 C 93 % 11.4 C
888 14-08-2019 01:55:00 12.5 C 93 % 11.4 C
889 14-08-2019 02:00:00 12.4 C 93 % 11.3 C
890 14-08-2019 02:05:00 12.4 C 93 % 11.3 C
891 14-08-2019 02:10:00 12.3 C 93 % 11.2 C
892 14-08-2019 02:15:00 12.2 C 93 % 11.1 C
893 14-08-2019 02:20:00 12.2 C 93 % 11.1 C
894 14-08-2019 02:25:00 12.1 C 93 % 11 C
895 14-08-2019 02:30:00 12.1 C 93 % 11 C
896 14-08-2019 02:35:00 12 C 93 % 10.9 C
897 14-08-2019 02:40:00 11.9 C 93 % 10.81 C
898 14-08-2019 02:45:00 11.9 C 93 % 10.81 C
899 14-08-2019 02:50:00 11.9 C 94 % 10.97 C
900 14-08-2019 02:55:00 11.9 C 94 % 10.97 C
Sensor: Nr:Datum:Temp:Feuchte:Taupunkt:
Aussen-T/F 901 14-08-2019 03:00:00 11.9 C 94 % 10.97 C
902 14-08-2019 03:05:00 11.9 C 94 % 10.97 C
903 14-08-2019 03:10:00 12 C 94 % 11.07 C
904 14-08-2019 03:15:00 11.9 C 94 % 10.97 C
905 14-08-2019 03:20:00 11.9 C 94 % 10.97 C
906 14-08-2019 03:25:00 11.9 C 94 % 10.97 C
907 14-08-2019 03:30:00 11.9 C 94 % 10.97 C
908 14-08-2019 03:35:00 12 C 94 % 11.07 C
909 14-08-2019 03:40:00 12 C 94 % 11.07 C
910 14-08-2019 03:45:00 12 C 94 % 11.07 C
911 14-08-2019 03:50:00 11.9 C 94 % 10.97 C
912 14-08-2019 03:55:00 11.9 C 94 % 10.97 C
913 14-08-2019 04:00:00 11.8 C 94 % 10.87 C
914 14-08-2019 04:05:00 11.8 C 94 % 10.87 C
915 14-08-2019 04:10:00 11.7 C 94 % 10.77 C
916 14-08-2019 04:15:00 11.6 C 94 % 10.67 C
917 14-08-2019 04:20:00 11.5 C 94 % 10.57 C
918 14-08-2019 04:25:00 11.4 C 94 % 10.47 C
919 14-08-2019 04:30:00 11.3 C 94 % 10.37 C
920 14-08-2019 04:35:00 11.3 C 94 % 10.37 C
921 14-08-2019 04:40:00 11.2 C 94 % 10.27 C
922 14-08-2019 04:45:00 11.2 C 94 % 10.27 C
923 14-08-2019 04:50:00 11.2 C 94 % 10.27 C
924 14-08-2019 04:55:00 11.2 C 95 % 10.43 C
925 14-08-2019 05:00:00 11.2 C 95 % 10.43 C
Sensor: Nr:Datum:Temp:Feuchte:Taupunkt:
Aussen-T/F 926 14-08-2019 05:05:00 11.2 C 95 % 10.43 C
927 14-08-2019 05:10:00 11.1 C 95 % 10.33 C
928 14-08-2019 05:15:00 11.1 C 95 % 10.33 C
929 14-08-2019 05:20:00 11.1 C 95 % 10.33 C
930 14-08-2019 05:25:00 11 C 95 % 10.23 C
931 14-08-2019 05:30:00 10.9 C 95 % 10.13 C
932 14-08-2019 05:35:00 10.9 C 95 % 10.13 C
933 14-08-2019 05:40:00 10.9 C 95 % 10.13 C
934 14-08-2019 05:45:00 10.9 C 95 % 10.13 C
935 14-08-2019 05:50:00 10.9 C 95 % 10.13 C
936 14-08-2019 05:55:00 10.9 C 95 % 10.13 C
937 14-08-2019 06:00:00 10.8 C 95 % 10.03 C
938 14-08-2019 06:05:00 10.8 C 95 % 10.03 C
939 14-08-2019 06:10:00 10.7 C 95 % 9.93 C
940 14-08-2019 06:15:00 10.7 C 95 % 9.93 C
941 14-08-2019 06:20:00 10.6 C 95 % 9.83 C
942 14-08-2019 06:25:00 10.5 C 95 % 9.73 C
943 14-08-2019 06:30:00 10.5 C 95 % 9.73 C
944 14-08-2019 06:35:00 10.5 C 95 % 9.73 C
945 14-08-2019 06:40:00 10.6 C 96 % 9.99 C
946 14-08-2019 06:45:00 10.6 C 96 % 9.99 C
947 14-08-2019 06:50:00 10.6 C 95 % 9.83 C
948 14-08-2019 06:55:00 10.5 C 95 % 9.73 C
949 14-08-2019 07:00:00 10.5 C 96 % 9.89 C
950 14-08-2019 07:05:00 10.5 C 96 % 9.89 C
Sensor: Nr:Datum:Temp:Feuchte:Taupunkt:
Aussen-T/F 951 14-08-2019 07:10:00 10.5 C 96 % 9.89 C
952 14-08-2019 07:15:00 10.5 C 96 % 9.89 C
953 14-08-2019 07:20:00 10.6 C 96 % 9.99 C
954 14-08-2019 07:25:00 10.6 C 96 % 9.99 C
955 14-08-2019 07:30:00 10.6 C 96 % 9.99 C
956 14-08-2019 07:35:00 10.6 C 96 % 9.99 C
957 14-08-2019 07:40:00 10.7 C 96 % 10.09 C
958 14-08-2019 07:45:00 10.7 C 96 % 10.09 C
959 14-08-2019 07:50:00 10.8 C 96 % 10.19 C
960 14-08-2019 07:55:00 10.8 C 96 % 10.19 C
961 14-08-2019 08:00:00 10.9 C 96 % 10.29 C
962 14-08-2019 08:05:00 10.9 C 96 % 10.29 C
963 14-08-2019 08:10:00 11 C 96 % 10.39 C
964 14-08-2019 08:15:00 11.1 C 96 % 10.49 C
965 14-08-2019 08:20:00 11.1 C 96 % 10.49 C
966 14-08-2019 08:25:00 11.2 C 96 % 10.59 C
967 14-08-2019 08:30:00 11.3 C 96 % 10.69 C
968 14-08-2019 08:35:00 11.4 C 96 % 10.79 C
969 14-08-2019 08:40:00 11.6 C 97 % 11.14 C
970 14-08-2019 08:45:00 11.9 C 97 % 11.44 C
971 14-08-2019 08:50:00 12.1 C 97 % 11.64 C
972 14-08-2019 08:55:00 12.3 C 97 % 11.84 C
973 14-08-2019 09:00:00 12.4 C 97 % 11.94 C
974 14-08-2019 09:05:00 12.6 C 96 % 11.98 C
975 14-08-2019 09:10:00 12.8 C 96 % 12.18 C
Sensor: Nr:Datum:Temp:Feuchte:Taupunkt:
Aussen-T/F 976 14-08-2019 09:15:00 12.9 C 95 % 12.12 C
977 14-08-2019 09:20:00 13 C 95 % 12.22 C
978 14-08-2019 09:25:00 13.2 C 94 % 12.26 C
979 14-08-2019 09:30:00 13.3 C 93 % 12.19 C
980 14-08-2019 09:35:00 13.6 C 92 % 12.33 C
981 14-08-2019 09:40:00 13.7 C 92 % 12.42 C
982 14-08-2019 09:45:00 13.8 C 91 % 12.36 C
983 14-08-2019 09:50:00 14 C 90 % 12.39 C
984 14-08-2019 09:55:00 14.1 C 91 % 12.65 C
985 14-08-2019 10:00:00 14.2 C 91 % 12.75 C
986 14-08-2019 10:05:00 14.2 C 91 % 12.75 C
987 14-08-2019 10:10:00 14.2 C 91 % 12.75 C
988 14-08-2019 10:15:00 14.2 C 91 % 12.75 C
989 14-08-2019 10:20:00 14.2 C 92 % 12.92 C
990 14-08-2019 10:25:00 14.2 C 92 % 12.92 C
991 14-08-2019 10:30:00 14.2 C 92 % 12.92 C
992 14-08-2019 10:35:00 14.3 C 92 % 13.02 C
993 14-08-2019 10:40:00 14.3 C 92 % 13.02 C
994 14-08-2019 10:45:00 14.3 C 93 % 13.18 C
995 14-08-2019 10:50:00 14.4 C 93 % 13.28 C
996 14-08-2019 10:55:00 14.5 C 92 % 13.22 C
997 14-08-2019 11:00:00 14.6 C 90 % 12.98 C
998 14-08-2019 11:05:00 14.8 C 90 % 13.18 C
999 14-08-2019 11:10:00 15 C 87 % 12.86 C
1000 14-08-2019 11:15:00 15.3 C 88 % 13.33 C
Sensor: Nr:Datum:Temp:Feuchte:Taupunkt:
Aussen-T/F 1001 14-08-2019 11:20:00 15.5 C 87 % 13.35 C
1002 14-08-2019 11:25:00 15.7 C 87 % 13.54 C
1003 14-08-2019 11:30:00 15.8 C 86 % 13.46 C
1004 14-08-2019 11:35:00 15.9 C 87 % 13.74 C
1005 14-08-2019 11:40:00 15.9 C 76 % 11.68 C
1006 14-08-2019 11:45:00 16.2 C 78 % 12.36 C
1007 14-08-2019 11:50:00 16.5 C 72 % 11.44 C
1008 14-08-2019 11:55:00 16.8 C 71 % 11.52 C
1009 14-08-2019 12:00:00 16.9 C 70 % 11.4 C
1010 14-08-2019 12:05:00 17.2 C 68 % 11.25 C
1011 14-08-2019 12:10:00 17.6 C 67 % 11.4 C
1012 14-08-2019 12:15:00 17.8 C 64 % 10.9 C
1013 14-08-2019 12:20:00 17.9 C 61 % 10.28 C
1014 14-08-2019 12:25:00 18.1 C 63 % 10.95 C
1015 14-08-2019 12:30:00 18.3 C 63 % 11.14 C
1016 14-08-2019 12:35:00 18.4 C 61 % 10.75 C
1017 14-08-2019 12:40:00 18.6 C 59 % 10.44 C
1018 14-08-2019 12:45:00 18.7 C 58 % 10.28 C
1019 14-08-2019 12:50:00 18.8 C 62 % 11.37 C
1020 14-08-2019 12:55:00 18.9 C 57 % 10.2 C
1021 14-08-2019 13:00:00 19 C 56 % 10.03 C
1022 14-08-2019 13:05:00 19.2 C 57 % 10.48 C
1023 14-08-2019 13:10:00 19.3 C 55 % 10.04 C
1024 14-08-2019 13:15:00 19.3 C 56 % 10.31 C
1025 14-08-2019 13:20:00 19.4 C 55 % 10.13 C
Sensor: Nr:Datum:Temp:Feuchte:Taupunkt:
Aussen-T/F 1026 14-08-2019 13:25:00 19.6 C 55 % 10.32 C
1027 14-08-2019 13:30:00 19.7 C 56 % 10.68 C
1028 14-08-2019 13:35:00 19.8 C 58 % 11.3 C
1029 14-08-2019 13:40:00 19.9 C 55 % 10.6 C
1030 14-08-2019 13:45:00 19.8 C 54 % 10.23 C
1031 14-08-2019 13:50:00 19.9 C 53 % 10.04 C
1032 14-08-2019 13:55:00 20.2 C 50 % 9.45 C
1033 14-08-2019 14:00:00 20.3 C 51 % 9.84 C
1034 14-08-2019 14:05:00 20.6 C 51 % 10.12 C
1035 14-08-2019 14:10:00 20.7 C 51 % 10.21 C
1036 14-08-2019 14:15:00 20.8 C 52 % 10.59 C
1037 14-08-2019 14:20:00 21 C 49 % 9.89 C
1038 14-08-2019 14:25:00 21.2 C 50 % 10.37 C
1039 14-08-2019 14:30:00 21.2 C 48 % 9.76 C
1040 14-08-2019 14:35:00 21.1 C 50 % 10.28 C
1041 14-08-2019 14:40:00 21.2 C 52 % 10.96 C
1042 14-08-2019 14:45:00 21.5 C 50 % 10.65 C
1043 14-08-2019 14:50:00 21.7 C 49 % 10.53 C
1044 14-08-2019 14:55:00 21.7 C 49 % 10.53 C
1045 14-08-2019 15:00:00 21.8 C 51 % 11.22 C
1046 14-08-2019 15:05:00 21.9 C 51 % 11.31 C
1047 14-08-2019 15:10:00 22.3 C 48 % 10.77 C
1048 14-08-2019 15:15:00 22.6 C 49 % 11.35 C
1049 14-08-2019 15:20:00 22.8 C 48 % 11.22 C
1050 14-08-2019 15:25:00 22.9 C 47 % 11 C
Sensor: Nr:Datum:Temp:Feuchte:Taupunkt:
Aussen-T/F 1051 14-08-2019 15:30:00 23.1 C 48 % 11.5 C
1052 14-08-2019 15:35:00 22.9 C 52 % 12.53 C
1053 14-08-2019 15:40:00 22.7 C 47 % 10.81 C
1054 14-08-2019 15:45:00 22.4 C 53 % 12.36 C
1055 14-08-2019 15:50:00 22.7 C 49 % 11.44 C
1056 14-08-2019 15:55:00 23.2 C 48 % 11.59 C
1057 14-08-2019 16:00:00 23.1 C 49 % 11.81 C
1058 14-08-2019 16:05:00 23.2 C 48 % 11.59 C
1059 14-08-2019 16:10:00 23.6 C 46 % 11.31 C
1060 14-08-2019 16:15:00 23.7 C 45 % 11.07 C
1061 14-08-2019 16:20:00 23.7 C 45 % 11.07 C
1062 14-08-2019 16:25:00 23.9 C 46 % 11.58 C
1063 14-08-2019 16:30:00 23.9 C 46 % 11.58 C
1064 14-08-2019 16:35:00 24.1 C 46 % 11.76 C
1065 14-08-2019 16:40:00 24 C 46 % 11.67 C
1066 14-08-2019 16:45:00 23.9 C 46 % 11.58 C
1067 14-08-2019 16:50:00 23.9 C 45 % 11.25 C
1068 14-08-2019 16:55:00 23.9 C 47 % 11.91 C
1069 14-08-2019 17:00:00 24.3 C 45 % 11.61 C
1070 14-08-2019 17:05:00 24.7 C 45 % 11.97 C
1071 14-08-2019 17:10:00 24.8 C 44 % 11.72 C
1072 14-08-2019 17:15:00 24.6 C 43 % 11.2 C
1073 14-08-2019 17:20:00 24.5 C 46 % 12.13 C
1074 14-08-2019 17:25:00 24.3 C 46 % 11.94 C
1075 14-08-2019 17:30:00 24.2 C 46 % 11.85 C
Sensor: Nr:Datum:Temp:Feuchte:Taupunkt:
Aussen-T/F 1076 14-08-2019 17:35:00 24.2 C 45 % 11.52 C
1077 14-08-2019 17:40:00 24.4 C 45 % 11.7 C
1078 14-08-2019 17:45:00 24.4 C 44 % 11.36 C
1079 14-08-2019 17:50:00 24.5 C 44 % 11.45 C
1080 14-08-2019 17:55:00 24.4 C 44 % 11.36 C
1081 14-08-2019 18:00:00 24.4 C 46 % 12.04 C
1082 14-08-2019 18:05:00 24.4 C 44 % 11.36 C
1083 14-08-2019 18:10:00 24.3 C 46 % 11.94 C
1084 14-08-2019 18:15:00 23.8 C 45 % 11.16 C
1085 14-08-2019 18:20:00 23.7 C 47 % 11.73 C
1086 14-08-2019 18:25:00 24 C 49 % 12.63 C
1087 14-08-2019 18:30:00 24.2 C 46 % 11.85 C
1088 14-08-2019 18:35:00 24.3 C 48 % 12.59 C
1089 14-08-2019 18:40:00 24 C 47 % 12 C
1090 14-08-2019 18:45:00 23.8 C 48 % 12.14 C
1091 14-08-2019 18:50:00 23.5 C 47 % 11.54 C
1092 14-08-2019 18:55:00 23.6 C 48 % 11.95 C
1093 14-08-2019 19:00:00 23.8 C 48 % 12.14 C
1094 14-08-2019 19:05:00 23.9 C 49 % 12.54 C
1095 14-08-2019 19:10:00 23.7 C 49 % 12.36 C
1096 14-08-2019 19:15:00 23.2 C 49 % 11.9 C
1097 14-08-2019 19:20:00 22.7 C 53 % 12.63 C
1098 14-08-2019 19:25:00 22.3 C 54 % 12.55 C
1099 14-08-2019 19:30:00 21.9 C 60 % 13.79 C
1100 14-08-2019 19:35:00 21.6 C 60 % 13.51 C
Sensor: Nr:Datum:Temp:Feuchte:Taupunkt:
Aussen-T/F 1101 14-08-2019 19:40:00 21.3 C 62 % 13.73 C
1102 14-08-2019 19:45:00 21.2 C 64 % 14.12 C
1103 14-08-2019 19:50:00 21.1 C 65 % 14.27 C
1104 14-08-2019 19:55:00 21.1 C 65 % 14.27 C
1105 14-08-2019 20:00:00 20.9 C 64 % 13.84 C
1106 14-08-2019 20:05:00 20.7 C 66 % 14.12 C
1107 14-08-2019 20:10:00 20.3 C 66 % 13.74 C
1108 14-08-2019 20:15:00 20.1 C 66 % 13.55 C
1109 14-08-2019 20:20:00 19.8 C 66 % 13.27 C
1110 14-08-2019 20:25:00 19.6 C 67 % 13.31 C
1111 14-08-2019 20:30:00 19.4 C 68 % 13.34 C
1112 14-08-2019 20:35:00 19.3 C 68 % 13.25 C
1113 14-08-2019 20:40:00 19.2 C 69 % 13.38 C
1114 14-08-2019 20:45:00 19.1 C 70 % 13.5 C
1115 14-08-2019 20:50:00 18.9 C 70 % 13.31 C
1116 14-08-2019 20:55:00 18.8 C 71 % 13.43 C
1117 14-08-2019 21:00:00 18.7 C 71 % 13.34 C
1118 14-08-2019 21:05:00 18.6 C 72 % 13.46 C
1119 14-08-2019 21:10:00 18.4 C 72 % 13.26 C
1120 14-08-2019 21:15:00 18.3 C 73 % 13.38 C
1121 14-08-2019 21:20:00 18.2 C 74 % 13.49 C
1122 14-08-2019 21:25:00 18.1 C 75 % 13.6 C
1123 14-08-2019 21:30:00 18 C 75 % 13.51 C
1124 14-08-2019 21:35:00 17.9 C 75 % 13.41 C
1125 14-08-2019 21:40:00 17.8 C 75 % 13.31 C
Sensor: Nr:Datum:Temp:Feuchte:Taupunkt:
Aussen-T/F 1126 14-08-2019 21:45:00 17.8 C 76 % 13.52 C
1127 14-08-2019 21:50:00 17.7 C 75 % 13.22 C
1128 14-08-2019 21:55:00 17.7 C 76 % 13.42 C
1129 14-08-2019 22:00:00 17.7 C 76 % 13.42 C
1130 14-08-2019 22:05:00 17.7 C 76 % 13.42 C
1131 14-08-2019 22:10:00 17.7 C 76 % 13.42 C
1132 14-08-2019 22:15:00 17.7 C 76 % 13.42 C
1133 14-08-2019 22:20:00 17.7 C 76 % 13.42 C
1134 14-08-2019 22:25:00 17.6 C 76 % 13.32 C
1135 14-08-2019 22:30:00 17.6 C 76 % 13.32 C
1136 14-08-2019 22:35:00 17.6 C 77 % 13.52 C
1137 14-08-2019 22:40:00 17.6 C 76 % 13.32 C
1138 14-08-2019 22:45:00 17.6 C 76 % 13.32 C
1139 14-08-2019 22:50:00 17.6 C 77 % 13.52 C
1140 14-08-2019 22:55:00 17.5 C 76 % 13.23 C
1141 14-08-2019 23:00:00 17.5 C 76 % 13.23 C
1142 14-08-2019 23:05:00 17.5 C 77 % 13.43 C
1143 14-08-2019 23:10:00 17.4 C 76 % 13.13 C
1144 14-08-2019 23:15:00 17.4 C 76 % 13.13 C
1145 14-08-2019 23:20:00 17.4 C 76 % 13.13 C
1146 14-08-2019 23:25:00 17.4 C 78 % 13.53 C
1147 14-08-2019 23:30:00 17.4 C 77 % 13.33 C
1148 14-08-2019 23:35:00 17.4 C 77 % 13.33 C
1149 14-08-2019 23:40:00 17.4 C 77 % 13.33 C
1150 14-08-2019 23:45:00 17.4 C 77 % 13.33 C
Sensor: Nr:Datum:Temp:Feuchte:Taupunkt:
Aussen-T/F 1151 14-08-2019 23:50:00 17.3 C 75 % 12.83 C
1152 14-08-2019 23:55:00 17.3 C 76 % 13.03 C
1153 15-08-2019 00:00:00 17.4 C 76 % 13.13 C
1154 15-08-2019 00:05:00 17.4 C 76 % 13.13 C
1155 15-08-2019 00:10:00 17.4 C 77 % 13.33 C
1156 15-08-2019 00:15:00 17.4 C 77 % 13.33 C
1157 15-08-2019 00:20:00 17.3 C 78 % 13.43 C
1158 15-08-2019 00:25:00 17.3 C 77 % 13.23 C
1159 15-08-2019 00:30:00 17.3 C 78 % 13.43 C
1160 15-08-2019 00:35:00 17.3 C 77 % 13.23 C
1161 15-08-2019 00:40:00 17.3 C 75 % 12.83 C
1162 15-08-2019 00:45:00 17.3 C 76 % 13.03 C
1163 15-08-2019 00:50:00 17.4 C 76 % 13.13 C
1164 15-08-2019 00:55:00 17.5 C 76 % 13.23 C
1165 15-08-2019 01:00:00 17.5 C 78 % 13.62 C
1166 15-08-2019 01:05:00 17.5 C 76 % 13.23 C
1167 15-08-2019 01:10:00 17.5 C 76 % 13.23 C
1168 15-08-2019 01:15:00 17.5 C 77 % 13.43 C
1169 15-08-2019 01:20:00 17.4 C 77 % 13.33 C
1170 15-08-2019 01:25:00 17.4 C 77 % 13.33 C
1171 15-08-2019 01:30:00 17.3 C 76 % 13.03 C
1172 15-08-2019 01:35:00 17.3 C 76 % 13.03 C
1173 15-08-2019 01:40:00 17.3 C 77 % 13.23 C
1174 15-08-2019 01:45:00 17.3 C 77 % 13.23 C
1175 15-08-2019 01:50:00 17.3 C 80 % 13.82 C
Sensor: Nr:Datum:Temp:Feuchte:Taupunkt:
Aussen-T/F 1176 15-08-2019 01:55:00 17.3 C 83 % 14.39 C
1177 15-08-2019 02:00:00 17.2 C 84 % 14.47 C
1178 15-08-2019 02:05:00 16.9 C 85 % 14.36 C
1179 15-08-2019 02:10:00 16.7 C 86 % 14.35 C
1180 15-08-2019 02:15:00 16.4 C 87 % 14.23 C
1181 15-08-2019 02:20:00 16.3 C 88 % 14.31 C
1182 15-08-2019 02:25:00 16.1 C 88 % 14.11 C
1183 15-08-2019 02:30:00 16 C 89 % 14.19 C
1184 15-08-2019 02:35:00 15.9 C 90 % 14.26 C
1185 15-08-2019 02:40:00 15.8 C 90 % 14.16 C
1186 15-08-2019 02:45:00 15.8 C 91 % 14.33 C
1187 15-08-2019 02:50:00 15.7 C 91 % 14.24 C
1188 15-08-2019 02:55:00 15.6 C 92 % 14.31 C
1189 15-08-2019 03:00:00 15.6 C 92 % 14.31 C
1190 15-08-2019 03:05:00 15.5 C 92 % 14.21 C
1191 15-08-2019 03:10:00 15.4 C 92 % 14.11 C
1192 15-08-2019 03:15:00 15.3 C 92 % 14.01 C
1193 15-08-2019 03:20:00 15.3 C 92 % 14.01 C
1194 15-08-2019 03:25:00 15.3 C 92 % 14.01 C
1195 15-08-2019 03:30:00 15.2 C 92 % 13.91 C
1196 15-08-2019 03:35:00 15.2 C 93 % 14.08 C
1197 15-08-2019 03:40:00 15.2 C 93 % 14.08 C
1198 15-08-2019 03:45:00 15.1 C 93 % 13.98 C
1199 15-08-2019 03:50:00 15.1 C 93 % 13.98 C
1200 15-08-2019 03:55:00 15.1 C 93 % 13.98 C
Sensor: Nr:Datum:Temp:Feuchte:Taupunkt:
Aussen-T/F 1201 15-08-2019 04:00:00 15 C 93 % 13.88 C
1202 15-08-2019 04:05:00 14.9 C 93 % 13.78 C
1203 15-08-2019 04:10:00 14.9 C 93 % 13.78 C
1204 15-08-2019 04:15:00 14.9 C 93 % 13.78 C
1205 15-08-2019 04:20:00 14.9 C 94 % 13.94 C
1206 15-08-2019 04:25:00 14.9 C 94 % 13.94 C
1207 15-08-2019 04:30:00 14.9 C 94 % 13.94 C
1208 15-08-2019 04:35:00 14.9 C 94 % 13.94 C
1209 15-08-2019 04:40:00 14.9 C 94 % 13.94 C
1210 15-08-2019 04:45:00 14.9 C 94 % 13.94 C
1211 15-08-2019 04:50:00 14.9 C 94 % 13.94 C
1212 15-08-2019 04:55:00 14.9 C 94 % 13.94 C
1213 15-08-2019 05:00:00 14.9 C 94 % 13.94 C
1214 15-08-2019 05:05:00 14.9 C 94 % 13.94 C
1215 15-08-2019 05:10:00 14.9 C 94 % 13.94 C
1216 15-08-2019 05:15:00 14.9 C 94 % 13.94 C
1217 15-08-2019 05:20:00 14.8 C 94 % 13.84 C
1218 15-08-2019 05:25:00 14.8 C 94 % 13.84 C
1219 15-08-2019 05:30:00 14.8 C 94 % 13.84 C
1220 15-08-2019 05:35:00 14.8 C 94 % 13.84 C
1221 15-08-2019 05:40:00 14.8 C 94 % 13.84 C
1222 15-08-2019 05:45:00 14.8 C 94 % 13.84 C
1223 15-08-2019 05:50:00 14.8 C 95 % 14.01 C
1224 15-08-2019 05:55:00 14.9 C 95 % 14.11 C
1225 15-08-2019 06:00:00 14.9 C 95 % 14.11 C
Sensor: Nr:Datum:Temp:Feuchte:Taupunkt:
Aussen-T/F 1226 15-08-2019 06:05:00 14.9 C 95 % 14.11 C
1227 15-08-2019 06:10:00 15 C 95 % 14.21 C
1228 15-08-2019 06:15:00 14.9 C 95 % 14.11 C
1229 15-08-2019 06:20:00 14.9 C 95 % 14.11 C
1230 15-08-2019 06:25:00 14.9 C 95 % 14.11 C
1231 15-08-2019 06:30:00 15 C 95 % 14.21 C
1232 15-08-2019 06:35:00 15 C 95 % 14.21 C
1233 15-08-2019 06:40:00 15 C 95 % 14.21 C
1234 15-08-2019 06:45:00 15 C 95 % 14.21 C
1235 15-08-2019 06:50:00 15 C 94 % 14.04 C
1236 15-08-2019 06:55:00 15.1 C 94 % 14.14 C
1237 15-08-2019 07:00:00 15.2 C 94 % 14.24 C
1238 15-08-2019 07:05:00 15.2 C 94 % 14.24 C
1239 15-08-2019 07:10:00 15.2 C 94 % 14.24 C
1240 15-08-2019 07:15:00 15.3 C 94 % 14.34 C
1241 15-08-2019 07:20:00 15.3 C 94 % 14.34 C
1242 15-08-2019 07:25:00 15.4 C 93 % 14.27 C
1243 15-08-2019 07:30:00 15.5 C 93 % 14.37 C
1244 15-08-2019 07:35:00 15.6 C 93 % 14.47 C
1245 15-08-2019 07:40:00 15.7 C 91 % 14.24 C
1246 15-08-2019 07:45:00 16 C 91 % 14.53 C
1247 15-08-2019 07:50:00 16.2 C 90 % 14.56 C
1248 15-08-2019 07:55:00 16.6 C 87 % 14.43 C
1249 15-08-2019 08:00:00 16.9 C 85 % 14.36 C
1250 15-08-2019 08:05:00 17.3 C 84 % 14.57 C
Sensor: Nr:Datum:Temp:Feuchte:Taupunkt:
Aussen-T/F 1251 15-08-2019 08:10:00 17.5 C 84 % 14.77 C
1252 15-08-2019 08:15:00 17.6 C 83 % 14.68 C
1253 15-08-2019 08:20:00 17.6 C 84 % 14.87 C
1254 15-08-2019 08:25:00 17.6 C 86 % 15.23 C
1255 15-08-2019 08:30:00 17.6 C 86 % 15.23 C
1256 15-08-2019 08:35:00 17.5 C 84 % 14.77 C
1257 15-08-2019 08:40:00 17.7 C 84 % 14.96 C
1258 15-08-2019 08:45:00 17.8 C 83 % 14.88 C
1259 15-08-2019 08:50:00 17.9 C 82 % 14.78 C
1260 15-08-2019 08:55:00 18.1 C 82 % 14.98 C
1261 15-08-2019 09:00:00 18.2 C 82 % 15.08 C
1262 15-08-2019 09:05:00 18.3 C 81 % 14.98 C
1263 15-08-2019 09:10:00 18.3 C 82 % 15.17 C
1264 15-08-2019 09:15:00 18.4 C 82 % 15.27 C
1265 15-08-2019 09:20:00 18.4 C 81 % 15.08 C
1266 15-08-2019 09:25:00 18.5 C 81 % 15.18 C
1267 15-08-2019 09:30:00 18.5 C 81 % 15.18 C
1268 15-08-2019 09:35:00 18.5 C 82 % 15.37 C
1269 15-08-2019 09:40:00 18.6 C 81 % 15.28 C
1270 15-08-2019 09:45:00 18.6 C 81 % 15.28 C
1271 15-08-2019 09:50:00 18.7 C 82 % 15.57 C
1272 15-08-2019 09:55:00 18.8 C 82 % 15.66 C
1273 15-08-2019 10:00:00 18.8 C 81 % 15.47 C
1274 15-08-2019 10:05:00 18.9 C 82 % 15.76 C
1275 15-08-2019 10:10:00 18.9 C 81 % 15.57 C
Sensor: Nr:Datum:Temp:Feuchte:Taupunkt:
Aussen-T/F 1276 15-08-2019 10:15:00 19 C 81 % 15.67 C
1277 15-08-2019 10:20:00 19 C 81 % 15.67 C
1278 15-08-2019 10:25:00 19.1 C 82 % 15.96 C
1279 15-08-2019 10:30:00 19.2 C 81 % 15.86 C
1280 15-08-2019 10:35:00 19.3 C 81 % 15.96 C
1281 15-08-2019 10:40:00 19.3 C 81 % 15.96 C
1282 15-08-2019 10:45:00 19.4 C 80 % 15.86 C
1283 15-08-2019 10:50:00 19.4 C 81 % 16.06 C
1284 15-08-2019 10:55:00 19.4 C 80 % 15.86 C
1285 15-08-2019 11:00:00 19.4 C 80 % 15.86 C
1286 15-08-2019 11:05:00 19.3 C 81 % 15.96 C
1287 15-08-2019 11:10:00 19.3 C 82 % 16.15 C
1288 15-08-2019 11:15:00 19.3 C 82 % 16.15 C
1289 15-08-2019 11:20:00 19.2 C 82 % 16.05 C
1290 15-08-2019 11:25:00 19.2 C 82 % 16.05 C
1291 15-08-2019 11:30:00 19.2 C 82 % 16.05 C
1292 15-08-2019 11:35:00 19.2 C 82 % 16.05 C
1293 15-08-2019 11:40:00 19.3 C 82 % 16.15 C
1294 15-08-2019 11:45:00 19.4 C 82 % 16.25 C
1295 15-08-2019 11:50:00 19.4 C 81 % 16.06 C
1296 15-08-2019 11:55:00 19.2 C 81 % 15.86 C
1297 15-08-2019 12:00:00 19.2 C 83 % 16.24 C
1298 15-08-2019 12:05:00 19.3 C 82 % 16.15 C
1299 15-08-2019 12:10:00 19.5 C 81 % 16.15 C
1300 15-08-2019 12:15:00 19.7 C 80 % 16.15 C
Sensor: Nr:Datum:Temp:Feuchte:Taupunkt:
Aussen-T/F 1301 15-08-2019 12:20:00 19.8 C 79 % 16.05 C
1302 15-08-2019 12:25:00 20.1 C 79 % 16.34 C
1303 15-08-2019 12:30:00 20.3 C 79 % 16.54 C
1304 15-08-2019 12:35:00 20.4 C 77 % 16.23 C
1305 15-08-2019 12:40:00 20.4 C 76 % 16.03 C
1306 15-08-2019 12:45:00 20.3 C 77 % 16.14 C
1307 15-08-2019 12:50:00 20.1 C 80 % 16.54 C
1308 15-08-2019 12:55:00 19.8 C 83 % 16.83 C
1309 15-08-2019 13:00:00 19.7 C 85 % 17.11 C
1310 15-08-2019 13:05:00 19.4 C 85 % 16.81 C
1311 15-08-2019 13:10:00 19.1 C 85 % 16.52 C
1312 15-08-2019 13:15:00 18.9 C 86 % 16.51 C
1313 15-08-2019 13:20:00 18.7 C 88 % 16.67 C
1314 15-08-2019 13:25:00 18.7 C 90 % 17.03 C
1315 15-08-2019 13:30:00 18.8 C 90 % 17.12 C
1316 15-08-2019 13:35:00 18.8 C 90 % 17.12 C
1317 15-08-2019 13:40:00 18.7 C 91 % 17.2 C
1318 15-08-2019 13:45:00 18.7 C 91 % 17.2 C
1319 15-08-2019 13:50:00 18.8 C 92 % 17.47 C
1320 15-08-2019 13:55:00 19 C 91 % 17.5 C
1321 15-08-2019 14:00:00 19.2 C 90 % 17.52 C
1322 15-08-2019 14:05:00 19.3 C 90 % 17.62 C
1323 15-08-2019 14:10:00 19.4 C 89 % 17.54 C
1324 15-08-2019 14:15:00 19.5 C 87 % 17.28 C
1325 15-08-2019 14:20:00 19.5 C 86 % 17.1 C
Sensor: Nr:Datum:Temp:Feuchte:Taupunkt:
Aussen-T/F 1326 15-08-2019 14:25:00 19.6 C 87 % 17.38 C
1327 15-08-2019 14:30:00 19.7 C 86 % 17.29 C
1328 15-08-2019 14:35:00 19.6 C 85 % 17.01 C
1329 15-08-2019 14:40:00 19.8 C 85 % 17.21 C
1330 15-08-2019 14:45:00 20.1 C 84 % 17.31 C
1331 15-08-2019 14:50:00 20.4 C 82 % 17.22 C
1332 15-08-2019 14:55:00 20.7 C 81 % 17.32 C
1333 15-08-2019 15:00:00 20.9 C 81 % 17.52 C
1334 15-08-2019 15:05:00 21.2 C 79 % 17.41 C
1335 15-08-2019 15:10:00 21.5 C 77 % 17.3 C
1336 15-08-2019 15:15:00 21.7 C 76 % 17.28 C
1337 15-08-2019 15:20:00 21.8 C 76 % 17.38 C
1338 15-08-2019 15:25:00 21.5 C 77 % 17.3 C
1339 15-08-2019 15:30:00 21 C 78 % 17.02 C
1340 15-08-2019 15:35:00 20.6 C 81 % 17.22 C
1341 15-08-2019 15:40:00 20.2 C 85 % 17.6 C
1342 15-08-2019 15:45:00 19.9 C 87 % 17.67 C
1343 15-08-2019 15:50:00 19.6 C 89 % 17.74 C
1344 15-08-2019 15:55:00 19.6 C 90 % 17.91 C
1345 15-08-2019 16:00:00 19.3 C 90 % 17.62 C
1346 15-08-2019 16:05:00 19.4 C 92 % 18.07 C
1347 15-08-2019 16:10:00 19.4 C 92 % 18.07 C
1348 15-08-2019 16:15:00 19.7 C 92 % 18.36 C
1349 15-08-2019 16:20:00 19.8 C 91 % 18.29 C
1350 15-08-2019 16:25:00 19.9 C 90 % 18.21 C
Sensor: Nr:Datum:Temp:Feuchte:Taupunkt:
Aussen-T/F 1351 15-08-2019 16:30:00 19.8 C 88 % 17.75 C
1352 15-08-2019 16:35:00 19.7 C 88 % 17.66 C
1353 15-08-2019 16:40:00 19.6 C 89 % 17.74 C
1354 15-08-2019 16:45:00 19 C 86 % 16.6 C
1355 15-08-2019 16:50:00 18.4 C 88 % 16.38 C
1356 15-08-2019 16:55:00 17.9 C 89 % 16.06 C
1357 15-08-2019 17:00:00 17.6 C 91 % 16.11 C
1358 15-08-2019 17:05:00 17.6 C 92 % 16.28 C
1359 15-08-2019 17:10:00 17.5 C 92 % 16.19 C
1360 15-08-2019 17:15:00 17.3 C 92 % 15.99 C
1361 15-08-2019 17:20:00 17.3 C 93 % 16.16 C
1362 15-08-2019 17:25:00 17.2 C 93 % 16.06 C
1363 15-08-2019 17:30:00 17.3 C 93 % 16.16 C
1364 15-08-2019 17:35:00 17.3 C 94 % 16.33 C
1365 15-08-2019 17:40:00 17.2 C 93 % 16.06 C
1366 15-08-2019 17:45:00 17.2 C 94 % 16.23 C
1367 15-08-2019 17:50:00 17.1 C 94 % 16.13 C
1368 15-08-2019 17:55:00 17 C 94 % 16.03 C
1369 15-08-2019 18:00:00 17.1 C 94 % 16.13 C
1370 15-08-2019 18:05:00 17.1 C 94 % 16.13 C
1371 15-08-2019 18:10:00 17.1 C 94 % 16.13 C
1372 15-08-2019 18:15:00 17.1 C 94 % 16.13 C
1373 15-08-2019 18:20:00 17 C 94 % 16.03 C
1374 15-08-2019 18:25:00 16.9 C 94 % 15.93 C
1375 15-08-2019 18:30:00 16.9 C 94 % 15.93 C
Sensor: Nr:Datum:Temp:Feuchte:Taupunkt:
Aussen-T/F 1376 15-08-2019 18:35:00 16.9 C 94 % 15.93 C
1377 15-08-2019 18:40:00 16.9 C 94 % 15.93 C
1378 15-08-2019 18:45:00 16.9 C 95 % 16.09 C
1379 15-08-2019 18:50:00 16.9 C 95 % 16.09 C
1380 15-08-2019 18:55:00 16.9 C 94 % 15.93 C
1381 15-08-2019 19:00:00 16.9 C 95 % 16.09 C
1382 15-08-2019 19:05:00 17.1 C 95 % 16.29 C
1383 15-08-2019 19:10:00 17.3 C 95 % 16.49 C
1384 15-08-2019 19:15:00 17.5 C 96 % 16.85 C
1385 15-08-2019 19:20:00 17.5 C 95 % 16.69 C
1386 15-08-2019 19:25:00 17.5 C 95 % 16.69 C
1387 15-08-2019 19:30:00 17.4 C 94 % 16.42 C
1388 15-08-2019 19:35:00 17.3 C 94 % 16.33 C
1389 15-08-2019 19:40:00 17.2 C 94 % 16.23 C
1390 15-08-2019 19:45:00 17.1 C 94 % 16.13 C
1391 15-08-2019 19:50:00 17.1 C 94 % 16.13 C
1392 15-08-2019 19:55:00 17.1 C 94 % 16.13 C
1393 15-08-2019 20:00:00 17.2 C 95 % 16.39 C
1394 15-08-2019 20:05:00 17.2 C 95 % 16.39 C
1395 15-08-2019 20:10:00 17.3 C 95 % 16.49 C
1396 15-08-2019 20:15:00 17.3 C 95 % 16.49 C
1397 15-08-2019 20:20:00 17.3 C 95 % 16.49 C
1398 15-08-2019 20:25:00 17.2 C 95 % 16.39 C
1399 15-08-2019 20:30:00 17.1 C 95 % 16.29 C
1400 15-08-2019 20:35:00 17.1 C 94 % 16.13 C
Sensor: Nr:Datum:Temp:Feuchte:Taupunkt:
Aussen-T/F 1401 15-08-2019 20:40:00 17 C 94 % 16.03 C
1402 15-08-2019 20:45:00 16.9 C 94 % 15.93 C
1403 15-08-2019 20:50:00 16.8 C 94 % 15.83 C
1404 15-08-2019 20:55:00 16.7 C 94 % 15.73 C
1405 15-08-2019 21:00:00 16.6 C 94 % 15.63 C
1406 15-08-2019 21:05:00 16.5 C 94 % 15.53 C
1407 15-08-2019 21:10:00 16.4 C 95 % 15.6 C
1408 15-08-2019 21:15:00 16.4 C 95 % 15.6 C
1409 15-08-2019 21:20:00 16.4 C 95 % 15.6 C
1410 15-08-2019 21:25:00 16.4 C 95 % 15.6 C
1411 15-08-2019 21:30:00 16.4 C 95 % 15.6 C
1412 15-08-2019 21:35:00 16.4 C 95 % 15.6 C
1413 15-08-2019 21:40:00 16.4 C 95 % 15.6 C
1414 15-08-2019 21:45:00 16.4 C 95 % 15.6 C
1415 15-08-2019 21:50:00 16.3 C 95 % 15.5 C
1416 15-08-2019 21:55:00 16.3 C 94 % 15.33 C
1417 15-08-2019 22:00:00 16.2 C 94 % 15.23 C
1418 15-08-2019 22:05:00 16.2 C 94 % 15.23 C
1419 15-08-2019 22:10:00 16.2 C 95 % 15.4 C
1420 15-08-2019 22:15:00 16.1 C 94 % 15.13 C
1421 15-08-2019 22:20:00 16.1 C 95 % 15.3 C
1422 15-08-2019 22:25:00 15.9 C 94 % 14.94 C
1423 15-08-2019 22:30:00 15.9 C 94 % 14.94 C
1424 15-08-2019 22:35:00 15.8 C 95 % 15 C
1425 15-08-2019 22:40:00 15.8 C 95 % 15 C
Sensor: Nr:Datum:Temp:Feuchte:Taupunkt:
Aussen-T/F 1426 15-08-2019 22:45:00 15.7 C 95 % 14.9 C
1427 15-08-2019 22:50:00 15.7 C 95 % 14.9 C
1428 15-08-2019 22:55:00 15.6 C 95 % 14.8 C
1429 15-08-2019 23:00:00 15.6 C 95 % 14.8 C
1430 15-08-2019 23:05:00 15.6 C 95 % 14.8 C
1431 15-08-2019 23:10:00 15.6 C 95 % 14.8 C
1432 15-08-2019 23:15:00 15.6 C 95 % 14.8 C
1433 15-08-2019 23:20:00 15.6 C 95 % 14.8 C
1434 15-08-2019 23:25:00 15.6 C 95 % 14.8 C
1435 15-08-2019 23:30:00 15.6 C 95 % 14.8 C
1436 15-08-2019 23:35:00 15.5 C 95 % 14.7 C
1437 15-08-2019 23:40:00 15.4 C 95 % 14.6 C
1438 15-08-2019 23:45:00 15.5 C 95 % 14.7 C
1439 15-08-2019 23:50:00 15.5 C 95 % 14.7 C
1440 15-08-2019 23:55:00 15.4 C 95 % 14.6 C
1441 16-08-2019 00:00:00 15.4 C 95 % 14.6 C
1442 16-08-2019 00:05:00 15.4 C 95 % 14.6 C
1443 16-08-2019 00:10:00 15.4 C 95 % 14.6 C
1444 16-08-2019 00:15:00 15.4 C 96 % 14.77 C
1445 16-08-2019 00:20:00 15.4 C 95 % 14.6 C
1446 16-08-2019 00:25:00 15.4 C 95 % 14.6 C
1447 16-08-2019 00:30:00 15.4 C 95 % 14.6 C
1448 16-08-2019 00:35:00 15.3 C 95 % 14.5 C
1449 16-08-2019 00:40:00 15.2 C 95 % 14.4 C
1450 16-08-2019 00:45:00 15.2 C 95 % 14.4 C
Sensor: Nr:Datum:Temp:Feuchte:Taupunkt:
Aussen-T/F 1451 16-08-2019 00:50:00 15.1 C 95 % 14.31 C
1452 16-08-2019 00:55:00 14.9 C 95 % 14.11 C
1453 16-08-2019 01:00:00 14.8 C 95 % 14.01 C
1454 16-08-2019 01:05:00 14.8 C 95 % 14.01 C
1455 16-08-2019 01:10:00 14.7 C 95 % 13.91 C
1456 16-08-2019 01:15:00 14.7 C 95 % 13.91 C
1457 16-08-2019 01:20:00 14.7 C 95 % 13.91 C
1458 16-08-2019 01:25:00 14.6 C 95 % 13.81 C
1459 16-08-2019 01:30:00 14.6 C 95 % 13.81 C
1460 16-08-2019 01:35:00 14.6 C 95 % 13.81 C
1461 16-08-2019 01:40:00 14.6 C 95 % 13.81 C
1462 16-08-2019 01:45:00 14.5 C 96 % 13.87 C
1463 16-08-2019 01:50:00 14.5 C 96 % 13.87 C
1464 16-08-2019 01:55:00 14.5 C 96 % 13.87 C
1465 16-08-2019 02:00:00 14.5 C 96 % 13.87 C
1466 16-08-2019 02:05:00 14.5 C 96 % 13.87 C
1467 16-08-2019 02:10:00 14.5 C 96 % 13.87 C
1468 16-08-2019 02:15:00 14.6 C 96 % 13.97 C
1469 16-08-2019 02:20:00 14.6 C 96 % 13.97 C
1470 16-08-2019 02:25:00 14.6 C 96 % 13.97 C
1471 16-08-2019 02:30:00 14.6 C 96 % 13.97 C
1472 16-08-2019 02:35:00 14.6 C 96 % 13.97 C
1473 16-08-2019 02:40:00 14.6 C 96 % 13.97 C
1474 16-08-2019 02:45:00 14.6 C 96 % 13.97 C
1475 16-08-2019 02:50:00 14.6 C 96 % 13.97 C
Sensor: Nr:Datum:Temp:Feuchte:Taupunkt:
Aussen-T/F 1476 16-08-2019 02:55:00 14.6 C 96 % 13.97 C
1477 16-08-2019 03:00:00 14.6 C 96 % 13.97 C
1478 16-08-2019 03:05:00 14.6 C 96 % 13.97 C
1479 16-08-2019 03:10:00 14.6 C 96 % 13.97 C
1480 16-08-2019 03:15:00 14.6 C 96 % 13.97 C
1481 16-08-2019 03:20:00 14.6 C 96 % 13.97 C
1482 16-08-2019 03:25:00 14.7 C 96 % 14.07 C
1483 16-08-2019 03:30:00 14.7 C 96 % 14.07 C
1484 16-08-2019 03:35:00 14.7 C 96 % 14.07 C
1485 16-08-2019 03:40:00 14.7 C 96 % 14.07 C
1486 16-08-2019 03:45:00 14.7 C 96 % 14.07 C
1487 16-08-2019 03:50:00 14.6 C 96 % 13.97 C
1488 16-08-2019 03:55:00 14.6 C 96 % 13.97 C
1489 16-08-2019 04:00:00 14.6 C 96 % 13.97 C
1490 16-08-2019 04:05:00 14.6 C 96 % 13.97 C
1491 16-08-2019 04:10:00 14.5 C 96 % 13.87 C
1492 16-08-2019 04:15:00 14.4 C 96 % 13.77 C
1493 16-08-2019 04:20:00 14.3 C 96 % 13.67 C
1494 16-08-2019 04:25:00 14.1 C 96 % 13.47 C
1495 16-08-2019 04:30:00 14 C 96 % 13.37 C
1496 16-08-2019 04:35:00 13.8 C 96 % 13.17 C
1497 16-08-2019 04:40:00 13.8 C 96 % 13.17 C
1498 16-08-2019 04:45:00 13.7 C 96 % 13.07 C
1499 16-08-2019 04:50:00 13.6 C 96 % 12.97 C
1500 16-08-2019 04:55:00 13.6 C 96 % 12.97 C
Sensor: Nr:Datum:Temp:Feuchte:Taupunkt:
Aussen-T/F 1501 16-08-2019 05:00:00 13.6 C 96 % 12.97 C
1502 16-08-2019 05:05:00 13.5 C 96 % 12.87 C
1503 16-08-2019 05:10:00 13.5 C 96 % 12.87 C
1504 16-08-2019 05:15:00 13.6 C 96 % 12.97 C
1505 16-08-2019 05:20:00 13.6 C 96 % 12.97 C
1506 16-08-2019 05:25:00 13.6 C 96 % 12.97 C
1507 16-08-2019 05:30:00 13.6 C 96 % 12.97 C
1508 16-08-2019 05:35:00 13.6 C 96 % 12.97 C
1509 16-08-2019 05:40:00 13.6 C 96 % 12.97 C
1510 16-08-2019 05:45:00 13.6 C 97 % 13.13 C
1511 16-08-2019 05:50:00 13.5 C 97 % 13.03 C
1512 16-08-2019 05:55:00 13.6 C 97 % 13.13 C
1513 16-08-2019 06:00:00 13.6 C 97 % 13.13 C
1514 16-08-2019 06:05:00 13.6 C 97 % 13.13 C
1515 16-08-2019 06:10:00 13.6 C 97 % 13.13 C
1516 16-08-2019 06:15:00 13.6 C 97 % 13.13 C
1517 16-08-2019 06:20:00 13.6 C 97 % 13.13 C
1518 16-08-2019 06:25:00 13.6 C 97 % 13.13 C
1519 16-08-2019 06:30:00 13.6 C 97 % 13.13 C
1520 16-08-2019 06:35:00 13.7 C 97 % 13.23 C
1521 16-08-2019 06:40:00 13.8 C 97 % 13.33 C
1522 16-08-2019 06:45:00 13.8 C 97 % 13.33 C
1523 16-08-2019 06:50:00 13.9 C 97 % 13.43 C
1524 16-08-2019 06:55:00 13.9 C 97 % 13.43 C
1525 16-08-2019 07:00:00 14.1 C 97 % 13.63 C
Sensor: Nr:Datum:Temp:Feuchte:Taupunkt:
Aussen-T/F 1526 16-08-2019 07:05:00 14.1 C 97 % 13.63 C
1527 16-08-2019 07:10:00 14.1 C 97 % 13.63 C
1528 16-08-2019 07:15:00 14.1 C 97 % 13.63 C
1529 16-08-2019 07:20:00 14.1 C 97 % 13.63 C
1530 16-08-2019 07:25:00 14.2 C 97 % 13.73 C
1531 16-08-2019 07:30:00 14.2 C 97 % 13.73 C
1532 16-08-2019 07:35:00 14.2 C 96 % 13.57 C
1533 16-08-2019 07:40:00 14.2 C 96 % 13.57 C
1534 16-08-2019 07:45:00 14.3 C 96 % 13.67 C
1535 16-08-2019 07:50:00 14.3 C 96 % 13.67 C
1536 16-08-2019 07:55:00 14.3 C 96 % 13.67 C
1537 16-08-2019 08:00:00 14.3 C 96 % 13.67 C
1538 16-08-2019 08:05:00 14.3 C 96 % 13.67 C
1539 16-08-2019 08:10:00 14.3 C 96 % 13.67 C
1540 16-08-2019 08:15:00 14.3 C 96 % 13.67 C
1541 16-08-2019 08:20:00 14.3 C 96 % 13.67 C
1542 16-08-2019 08:25:00 14.3 C 96 % 13.67 C
1543 16-08-2019 08:30:00 14.4 C 96 % 13.77 C
1544 16-08-2019 08:35:00 14.4 C 95 % 13.61 C
1545 16-08-2019 08:40:00 14.6 C 95 % 13.81 C
1546 16-08-2019 08:45:00 14.7 C 94 % 13.74 C
1547 16-08-2019 08:50:00 14.8 C 93 % 13.68 C
1548 16-08-2019 08:55:00 14.8 C 92 % 13.51 C
1549 16-08-2019 09:00:00 14.9 C 92 % 13.61 C
1550 16-08-2019 09:05:00 15.1 C 91 % 13.64 C
Sensor: Nr:Datum:Temp:Feuchte:Taupunkt:
Aussen-T/F 1551 16-08-2019 09:10:00 15.2 C 91 % 13.74 C
1552 16-08-2019 09:15:00 15.3 C 91 % 13.84 C
1553 16-08-2019 09:20:00 15.3 C 90 % 13.67 C
1554 16-08-2019 09:25:00 15.4 C 90 % 13.77 C
1555 16-08-2019 09:30:00 15.6 C 89 % 13.79 C
1556 16-08-2019 09:35:00 15.7 C 89 % 13.89 C
1557 16-08-2019 09:40:00 15.8 C 89 % 13.99 C
1558 16-08-2019 09:45:00 16 C 89 % 14.19 C
1559 16-08-2019 09:50:00 16.1 C 88 % 14.11 C
1560 16-08-2019 09:55:00 16.1 C 88 % 14.11 C
1561 16-08-2019 10:00:00 16.1 C 87 % 13.94 C
1562 16-08-2019 10:05:00 16.1 C 87 % 13.94 C
1563 16-08-2019 10:10:00 16.1 C 86 % 13.76 C
1564 16-08-2019 10:15:00 16.2 C 87 % 14.03 C
1565 16-08-2019 10:20:00 16.2 C 87 % 14.03 C
1566 16-08-2019 10:25:00 16.3 C 86 % 13.95 C
1567 16-08-2019 10:30:00 16.3 C 85 % 13.77 C
1568 16-08-2019 10:35:00 16.2 C 85 % 13.68 C
1569 16-08-2019 10:40:00 16.3 C 85 % 13.77 C
1570 16-08-2019 10:45:00 16.4 C 85 % 13.87 C
1571 16-08-2019 10:50:00 16.4 C 85 % 13.87 C
1572 16-08-2019 10:55:00 16.6 C 84 % 13.89 C
1573 16-08-2019 11:00:00 16.7 C 84 % 13.98 C
1574 16-08-2019 11:05:00 16.7 C 84 % 13.98 C
1575 16-08-2019 11:10:00 16.7 C 84 % 13.98 C
Sensor: Nr:Datum:Temp:Feuchte:Taupunkt:
Aussen-T/F 1576 16-08-2019 11:15:00 16.8 C 84 % 14.08 C
1577 16-08-2019 11:20:00 16.9 C 83 % 14 C
1578 16-08-2019 11:25:00 17.1 C 83 % 14.19 C
1579 16-08-2019 11:30:00 17.1 C 82 % 14 C
1580 16-08-2019 11:35:00 17.2 C 83 % 14.29 C
1581 16-08-2019 11:40:00 17.3 C 81 % 14.01 C
1582 16-08-2019 11:45:00 17.4 C 81 % 14.11 C
1583 16-08-2019 11:50:00 17.6 C 80 % 14.11 C
1584 16-08-2019 11:55:00 17.7 C 80 % 14.21 C
1585 16-08-2019 12:00:00 17.8 C 80 % 14.31 C
1586 16-08-2019 12:05:00 17.8 C 78 % 13.91 C
1587 16-08-2019 12:10:00 17.9 C 79 % 14.21 C
1588 16-08-2019 12:15:00 18 C 78 % 14.11 C
1589 16-08-2019 12:20:00 18.2 C 78 % 14.3 C
1590 16-08-2019 12:25:00 18.3 C 76 % 14 C
1591 16-08-2019 12:30:00 18.5 C 76 % 14.19 C
1592 16-08-2019 12:35:00 18.7 C 76 % 14.39 C
1593 16-08-2019 12:40:00 18.8 C 75 % 14.28 C
1594 16-08-2019 12:45:00 18.9 C 74 % 14.17 C
1595 16-08-2019 12:50:00 19.1 C 74 % 14.36 C
1596 16-08-2019 12:55:00 19.2 C 73 % 14.25 C
1597 16-08-2019 13:00:00 19.3 C 72 % 14.13 C
1598 16-08-2019 13:05:00 19.4 C 72 % 14.22 C
1599 16-08-2019 13:10:00 19.4 C 70 % 13.79 C
1600 16-08-2019 13:15:00 19.5 C 71 % 14.1 C
Sensor: Nr:Datum:Temp:Feuchte:Taupunkt:
Aussen-T/F 1601 16-08-2019 13:20:00 19.6 C 70 % 13.98 C
1602 16-08-2019 13:25:00 19.7 C 70 % 14.08 C
1603 16-08-2019 13:30:00 19.7 C 71 % 14.3 C
1604 16-08-2019 13:35:00 19.8 C 70 % 14.17 C
1605 16-08-2019 13:40:00 19.8 C 71 % 14.39 C
1606 16-08-2019 13:45:00 19.8 C 71 % 14.39 C
1607 16-08-2019 13:50:00 19.9 C 70 % 14.27 C
1608 16-08-2019 13:55:00 19.9 C 71 % 14.49 C
1609 16-08-2019 14:00:00 19.9 C 71 % 14.49 C
1610 16-08-2019 14:05:00 19.9 C 69 % 14.05 C
1611 16-08-2019 14:10:00 19.9 C 69 % 14.05 C
1612 16-08-2019 14:15:00 20.1 C 69 % 14.24 C
1613 16-08-2019 14:20:00 20.2 C 69 % 14.33 C
1614 16-08-2019 14:25:00 20.2 C 68 % 14.11 C
1615 16-08-2019 14:30:00 20.4 C 67 % 14.07 C
1616 16-08-2019 14:35:00 20.5 C 67 % 14.16 C
1617 16-08-2019 14:40:00 20.7 C 67 % 14.36 C
1618 16-08-2019 14:45:00 20.9 C 66 % 14.31 C
1619 16-08-2019 14:50:00 21 C 65 % 14.17 C
1620 16-08-2019 14:55:00 21.1 C 65 % 14.27 C
1621 16-08-2019 15:00:00 21.3 C 65 % 14.46 C
1622 16-08-2019 15:05:00 21.5 C 65 % 14.65 C
1623 16-08-2019 15:10:00 21.7 C 62 % 14.1 C
1624 16-08-2019 15:15:00 21.8 C 63 % 14.45 C
1625 16-08-2019 15:20:00 21.8 C 60 % 13.69 C
Sensor: Nr:Datum:Temp:Feuchte:Taupunkt:
Aussen-T/F 1626 16-08-2019 15:25:00 21.7 C 61 % 13.85 C
1627 16-08-2019 15:30:00 21.8 C 60 % 13.69 C
1628 16-08-2019 15:35:00 22.1 C 58 % 13.45 C
1629 16-08-2019 15:40:00 22.3 C 61 % 14.42 C
1630 16-08-2019 15:45:00 22.2 C 59 % 13.81 C
1631 16-08-2019 15:50:00 22.1 C 59 % 13.72 C
1632 16-08-2019 15:55:00 22.6 C 59 % 14.18 C
1633 16-08-2019 16:00:00 22.7 C 56 % 13.47 C
1634 16-08-2019 16:05:00 22.9 C 55 % 13.38 C
1635 16-08-2019 16:10:00 23.1 C 57 % 14.12 C
1636 16-08-2019 16:15:00 23.2 C 54 % 13.38 C
1637 16-08-2019 16:20:00 23.4 C 59 % 14.93 C
1638 16-08-2019 16:25:00 23.8 C 55 % 14.22 C
1639 16-08-2019 16:30:00 24 C 54 % 14.12 C
1640 16-08-2019 16:35:00 24 C 53 % 13.83 C
1641 16-08-2019 16:40:00 23.9 C 54 % 14.03 C
1642 16-08-2019 16:45:00 24.1 C 52 % 13.63 C
1643 16-08-2019 16:50:00 24.3 C 53 % 14.11 C
1644 16-08-2019 16:55:00 24.2 C 52 % 13.73 C
1645 16-08-2019 17:00:00 24.2 C 51 % 13.43 C
1646 16-08-2019 17:05:00 24.4 C 53 % 14.2 C
1647 16-08-2019 17:10:00 24.4 C 52 % 13.91 C
1648 16-08-2019 17:15:00 24.5 C 50 % 13.4 C
1649 16-08-2019 17:20:00 24.5 C 51 % 13.7 C
1650 16-08-2019 17:25:00 24.4 C 52 % 13.91 C
Sensor: Nr:Datum:Temp:Feuchte:Taupunkt:
Aussen-T/F 1651 16-08-2019 17:30:00 24.4 C 50 % 13.31 C
1652 16-08-2019 17:35:00 24.6 C 53 % 14.39 C
1653 16-08-2019 17:40:00 24.7 C 51 % 13.89 C
1654 16-08-2019 17:45:00 24.3 C 54 % 14.4 C
1655 16-08-2019 17:50:00 24.5 C 54 % 14.58 C
1656 16-08-2019 17:55:00 24.8 C 51 % 13.98 C
1657 16-08-2019 18:00:00 24.8 C 55 % 15.15 C
1658 16-08-2019 18:05:00 24.9 C 52 % 14.37 C
1659 16-08-2019 18:10:00 24.7 C 51 % 13.89 C
1660 16-08-2019 18:15:00 24.4 C 54 % 14.49 C
1661 16-08-2019 18:20:00 24.6 C 52 % 14.09 C
1662 16-08-2019 18:25:00 24.6 C 52 % 14.09 C
1663 16-08-2019 18:30:00 24.4 C 52 % 13.91 C
1664 16-08-2019 18:35:00 24.3 C 50 % 13.22 C
1665 16-08-2019 18:40:00 24.1 C 52 % 13.63 C
1666 16-08-2019 18:45:00 24.1 C 51 % 13.34 C
1667 16-08-2019 18:50:00 24.2 C 52 % 13.73 C
1668 16-08-2019 18:55:00 24.1 C 52 % 13.63 C
1669 16-08-2019 19:00:00 24.1 C 54 % 14.21 C
1670 16-08-2019 19:05:00 24.1 C 54 % 14.21 C
1671 16-08-2019 19:10:00 24.1 C 53 % 13.93 C
1672 16-08-2019 19:15:00 23.9 C 53 % 13.74 C
1673 16-08-2019 19:20:00 23.7 C 53 % 13.56 C
1674 16-08-2019 19:25:00 23.5 C 53 % 13.37 C
1675 16-08-2019 19:30:00 23.3 C 59 % 14.84 C
Sensor: Nr:Datum:Temp:Feuchte:Taupunkt:
Aussen-T/F 1676 16-08-2019 19:35:00 23.1 C 60 % 14.91 C
1677 16-08-2019 19:40:00 23.1 C 65 % 16.16 C
1678 16-08-2019 19:45:00 22.9 C 64 % 15.73 C
1679 16-08-2019 19:50:00 22.7 C 65 % 15.78 C
1680 16-08-2019 19:55:00 22.5 C 65 % 15.59 C
1681 16-08-2019 20:00:00 22.1 C 67 % 15.69 C
1682 16-08-2019 20:05:00 21.7 C 68 % 15.54 C
1683 16-08-2019 20:10:00 21.2 C 68 % 15.06 C
1684 16-08-2019 20:15:00 20.8 C 70 % 15.13 C
1685 16-08-2019 20:20:00 20.4 C 71 % 14.97 C
1686 16-08-2019 20:25:00 20.1 C 71 % 14.68 C
1687 16-08-2019 20:30:00 19.8 C 72 % 14.61 C
1688 16-08-2019 20:35:00 19.4 C 73 % 14.44 C
1689 16-08-2019 20:40:00 19.2 C 73 % 14.25 C
1690 16-08-2019 20:45:00 18.9 C 74 % 14.17 C
1691 16-08-2019 20:50:00 18.7 C 76 % 14.39 C
1692 16-08-2019 20:55:00 18.6 C 76 % 14.29 C
1693 16-08-2019 21:00:00 18.4 C 78 % 14.5 C
1694 16-08-2019 21:05:00 18.2 C 78 % 14.3 C
1695 16-08-2019 21:10:00 18.1 C 78 % 14.21 C
1696 16-08-2019 21:15:00 18 C 80 % 14.5 C
1697 16-08-2019 21:20:00 17.9 C 80 % 14.4 C
1698 16-08-2019 21:25:00 17.8 C 80 % 14.31 C
1699 16-08-2019 21:30:00 17.7 C 81 % 14.4 C
1700 16-08-2019 21:35:00 17.6 C 81 % 14.3 C
Sensor: Nr:Datum:Temp:Feuchte:Taupunkt:
Aussen-T/F 1701 16-08-2019 21:40:00 17.5 C 81 % 14.2 C
1702 16-08-2019 21:45:00 17.4 C 82 % 14.3 C
1703 16-08-2019 21:50:00 17.3 C 82 % 14.2 C
1704 16-08-2019 21:55:00 17.2 C 83 % 14.29 C
1705 16-08-2019 22:00:00 17.2 C 83 % 14.29 C
1706 16-08-2019 22:05:00 17.1 C 84 % 14.38 C
1707 16-08-2019 22:10:00 17.1 C 84 % 14.38 C
1708 16-08-2019 22:15:00 17 C 85 % 14.46 C
1709 16-08-2019 22:20:00 16.9 C 85 % 14.36 C
1710 16-08-2019 22:25:00 16.9 C 85 % 14.36 C
1711 16-08-2019 22:30:00 16.8 C 85 % 14.26 C
1712 16-08-2019 22:35:00 16.8 C 85 % 14.26 C
1713 16-08-2019 22:40:00 16.7 C 85 % 14.17 C
1714 16-08-2019 22:45:00 16.7 C 85 % 14.17 C
1715 16-08-2019 22:50:00 16.7 C 86 % 14.35 C
1716 16-08-2019 22:55:00 16.7 C 86 % 14.35 C
1717 16-08-2019 23:00:00 16.6 C 86 % 14.25 C
1718 16-08-2019 23:05:00 16.5 C 86 % 14.15 C
1719 16-08-2019 23:10:00 16.4 C 86 % 14.05 C
1720 16-08-2019 23:15:00 16.3 C 86 % 13.95 C
1721 16-08-2019 23:20:00 16.3 C 86 % 13.95 C
1722 16-08-2019 23:25:00 16.2 C 87 % 14.03 C
1723 16-08-2019 23:30:00 16.2 C 87 % 14.03 C
1724 16-08-2019 23:35:00 16.2 C 87 % 14.03 C
1725 16-08-2019 23:40:00 16.1 C 87 % 13.94 C
Sensor: Nr:Datum:Temp:Feuchte:Taupunkt:
Aussen-T/F 1726 16-08-2019 23:45:00 16.1 C 87 % 13.94 C
1727 16-08-2019 23:50:00 16 C 87 % 13.84 C
1728 16-08-2019 23:55:00 15.9 C 87 % 13.74 C
1729 17-08-2019 00:00:00 15.8 C 87 % 13.64 C
1730 17-08-2019 00:05:00 15.7 C 87 % 13.54 C
1731 17-08-2019 00:10:00 15.7 C 87 % 13.54 C
1732 17-08-2019 00:15:00 15.6 C 87 % 13.45 C
1733 17-08-2019 00:20:00 15.6 C 88 % 13.62 C
1734 17-08-2019 00:25:00 15.6 C 88 % 13.62 C
1735 17-08-2019 00:30:00 15.6 C 88 % 13.62 C
1736 17-08-2019 00:35:00 15.7 C 89 % 13.89 C
1737 17-08-2019 00:40:00 15.7 C 89 % 13.89 C
1738 17-08-2019 00:45:00 15.7 C 88 % 13.72 C
1739 17-08-2019 00:50:00 15.8 C 88 % 13.82 C
1740 17-08-2019 00:55:00 15.8 C 88 % 13.82 C
1741 17-08-2019 01:00:00 15.8 C 88 % 13.82 C
1742 17-08-2019 01:05:00 15.8 C 88 % 13.82 C
1743 17-08-2019 01:10:00 15.9 C 88 % 13.92 C
1744 17-08-2019 01:15:00 15.9 C 89 % 14.09 C
1745 17-08-2019 01:20:00 15.9 C 88 % 13.92 C
1746 17-08-2019 01:25:00 15.9 C 88 % 13.92 C
1747 17-08-2019 01:30:00 15.9 C 89 % 14.09 C
1748 17-08-2019 01:35:00 15.9 C 88 % 13.92 C
1749 17-08-2019 01:40:00 15.9 C 88 % 13.92 C
1750 17-08-2019 01:45:00 15.8 C 88 % 13.82 C
Sensor: Nr:Datum:Temp:Feuchte:Taupunkt:
Aussen-T/F 1751 17-08-2019 01:50:00 15.8 C 88 % 13.82 C
1752 17-08-2019 01:55:00 15.9 C 89 % 14.09 C
1753 17-08-2019 02:00:00 15.9 C 89 % 14.09 C
1754 17-08-2019 02:05:00 15.8 C 88 % 13.82 C
1755 17-08-2019 02:10:00 15.8 C 88 % 13.82 C
1756 17-08-2019 02:15:00 15.8 C 88 % 13.82 C
1757 17-08-2019 02:20:00 15.8 C 88 % 13.82 C
1758 17-08-2019 02:25:00 15.8 C 89 % 13.99 C
1759 17-08-2019 02:30:00 15.7 C 88 % 13.72 C
1760 17-08-2019 02:35:00 15.7 C 89 % 13.89 C
1761 17-08-2019 02:40:00 15.7 C 89 % 13.89 C
1762 17-08-2019 02:45:00 15.7 C 89 % 13.89 C
1763 17-08-2019 02:50:00 15.7 C 89 % 13.89 C
1764 17-08-2019 02:55:00 15.8 C 90 % 14.16 C
1765 17-08-2019 03:00:00 15.8 C 90 % 14.16 C
1766 17-08-2019 03:05:00 15.8 C 90 % 14.16 C
1767 17-08-2019 03:10:00 15.8 C 90 % 14.16 C
1768 17-08-2019 03:15:00 15.8 C 90 % 14.16 C
1769 17-08-2019 03:20:00 15.8 C 91 % 14.33 C
1770 17-08-2019 03:25:00 15.8 C 91 % 14.33 C
1771 17-08-2019 03:30:00 15.8 C 91 % 14.33 C
1772 17-08-2019 03:35:00 15.8 C 92 % 14.5 C
1773 17-08-2019 03:40:00 15.7 C 92 % 14.4 C
1774 17-08-2019 03:45:00 15.7 C 92 % 14.4 C
1775 17-08-2019 03:50:00 15.7 C 92 % 14.4 C
Sensor: Nr:Datum:Temp:Feuchte:Taupunkt:
Aussen-T/F 1776 17-08-2019 03:55:00 15.7 C 92 % 14.4 C
1777 17-08-2019 04:00:00 15.7 C 92 % 14.4 C
1778 17-08-2019 04:05:00 15.7 C 93 % 14.57 C
1779 17-08-2019 04:10:00 15.7 C 93 % 14.57 C
1780 17-08-2019 04:15:00 15.7 C 93 % 14.57 C
1781 17-08-2019 04:20:00 15.7 C 93 % 14.57 C
1782 17-08-2019 04:25:00 15.7 C 93 % 14.57 C
1783 17-08-2019 04:30:00 15.7 C 93 % 14.57 C
1784 17-08-2019 04:35:00 15.7 C 93 % 14.57 C
1785 17-08-2019 04:40:00 15.7 C 94 % 14.74 C
1786 17-08-2019 04:45:00 15.7 C 94 % 14.74 C
1787 17-08-2019 04:50:00 15.6 C 94 % 14.64 C
1788 17-08-2019 04:55:00 15.7 C 94 % 14.74 C
1789 17-08-2019 05:00:00 15.7 C 94 % 14.74 C
1790 17-08-2019 05:05:00 15.7 C 94 % 14.74 C
1791 17-08-2019 05:10:00 15.7 C 94 % 14.74 C
1792 17-08-2019 05:15:00 15.7 C 94 % 14.74 C
1793 17-08-2019 05:20:00 15.6 C 94 % 14.64 C
1794 17-08-2019 05:25:00 15.6 C 94 % 14.64 C
1795 17-08-2019 05:30:00 15.6 C 94 % 14.64 C
1796 17-08-2019 05:35:00 15.6 C 94 % 14.64 C
1797 17-08-2019 05:40:00 15.6 C 94 % 14.64 C
1798 17-08-2019 05:45:00 15.6 C 94 % 14.64 C
1799 17-08-2019 05:50:00 15.6 C 94 % 14.64 C
1800 17-08-2019 05:55:00 15.6 C 94 % 14.64 C
Sensor: Nr:Datum:Temp:Feuchte:Taupunkt:
Aussen-T/F 1801 17-08-2019 06:00:00 15.6 C 94 % 14.64 C
1802 17-08-2019 06:05:00 15.6 C 94 % 14.64 C
1803 17-08-2019 06:10:00 15.6 C 94 % 14.64 C
1804 17-08-2019 06:15:00 15.6 C 94 % 14.64 C
1805 17-08-2019 06:20:00 15.6 C 94 % 14.64 C
1806 17-08-2019 06:25:00 15.6 C 94 % 14.64 C
1807 17-08-2019 06:30:00 15.6 C 94 % 14.64 C
1808 17-08-2019 06:35:00 15.7 C 94 % 14.74 C
1809 17-08-2019 06:40:00 15.7 C 94 % 14.74 C
1810 17-08-2019 06:45:00 15.7 C 94 % 14.74 C
1811 17-08-2019 06:50:00 15.8 C 94 % 14.84 C
1812 17-08-2019 06:55:00 15.8 C 94 % 14.84 C
1813 17-08-2019 07:00:00 15.8 C 94 % 14.84 C
1814 17-08-2019 07:05:00 15.8 C 94 % 14.84 C
1815 17-08-2019 07:10:00 15.9 C 94 % 14.94 C
1816 17-08-2019 07:15:00 16 C 94 % 15.03 C
1817 17-08-2019 07:20:00 16.1 C 94 % 15.13 C
1818 17-08-2019 07:25:00 16.1 C 94 % 15.13 C
1819 17-08-2019 07:30:00 16.2 C 94 % 15.23 C
1820 17-08-2019 07:35:00 16.2 C 94 % 15.23 C
1821 17-08-2019 07:40:00 16.3 C 94 % 15.33 C
1822 17-08-2019 07:45:00 16.3 C 94 % 15.33 C
1823 17-08-2019 07:50:00 16.4 C 94 % 15.43 C
1824 17-08-2019 07:55:00 16.5 C 94 % 15.53 C
1825 17-08-2019 08:00:00 16.6 C 94 % 15.63 C
Sensor: Nr:Datum:Temp:Feuchte:Taupunkt:
Aussen-T/F 1826 17-08-2019 08:05:00 16.6 C 94 % 15.63 C
1827 17-08-2019 08:10:00 16.7 C 94 % 15.73 C
1828 17-08-2019 08:15:00 16.7 C 94 % 15.73 C
1829 17-08-2019 08:20:00 16.7 C 92 % 15.39 C
1830 17-08-2019 08:25:00 16.8 C 92 % 15.49 C
1831 17-08-2019 08:30:00 16.8 C 91 % 15.32 C
1832 17-08-2019 08:35:00 16.9 C 90 % 15.25 C
1833 17-08-2019 08:40:00 17.1 C 90 % 15.45 C
1834 17-08-2019 08:45:00 17.3 C 88 % 15.29 C
1835 17-08-2019 08:50:00 17.5 C 86 % 15.13 C
1836 17-08-2019 08:55:00 17.8 C 84 % 15.06 C
1837 17-08-2019 09:00:00 18.2 C 83 % 15.27 C
1838 17-08-2019 09:05:00 18.5 C 80 % 14.99 C
1839 17-08-2019 09:10:00 18.7 C 81 % 15.37 C
1840 17-08-2019 09:15:00 18.7 C 81 % 15.37 C
1841 17-08-2019 09:20:00 18.7 C 79 % 14.99 C
1842 17-08-2019 09:25:00 18.7 C 79 % 14.99 C
1843 17-08-2019 09:30:00 18.7 C 81 % 15.37 C
1844 17-08-2019 09:35:00 18.7 C 80 % 15.18 C
1845 17-08-2019 09:40:00 18.7 C 79 % 14.99 C
1846 17-08-2019 09:45:00 18.8 C 80 % 15.28 C
1847 17-08-2019 09:50:00 18.8 C 79 % 15.08 C
1848 17-08-2019 09:55:00 18.8 C 80 % 15.28 C
1849 17-08-2019 10:00:00 18.9 C 80 % 15.38 C
1850 17-08-2019 10:05:00 18.9 C 80 % 15.38 C
Sensor: Nr:Datum:Temp:Feuchte:Taupunkt:
Aussen-T/F 1851 17-08-2019 10:10:00 18.9 C 81 % 15.57 C
1852 17-08-2019 10:15:00 19 C 81 % 15.67 C
1853 17-08-2019 10:20:00 19.1 C 81 % 15.76 C
1854 17-08-2019 10:25:00 19.1 C 80 % 15.57 C
1855 17-08-2019 10:30:00 19.1 C 81 % 15.76 C
1856 17-08-2019 10:35:00 19.1 C 80 % 15.57 C
1857 17-08-2019 10:40:00 19.1 C 81 % 15.76 C
1858 17-08-2019 10:45:00 19.1 C 82 % 15.96 C
1859 17-08-2019 10:50:00 19 C 82 % 15.86 C
1860 17-08-2019 10:55:00 18.9 C 84 % 16.14 C
1861 17-08-2019 11:00:00 18.8 C 84 % 16.04 C
1862 17-08-2019 11:05:00 18.8 C 86 % 16.41 C
1863 17-08-2019 11:10:00 18.7 C 86 % 16.31 C
1864 17-08-2019 11:15:00 18.6 C 86 % 16.21 C
1865 17-08-2019 11:20:00 18.4 C 87 % 16.2 C
1866 17-08-2019 11:25:00 18.4 C 88 % 16.38 C
1867 17-08-2019 11:30:00 18.4 C 88 % 16.38 C
1868 17-08-2019 11:35:00 18.4 C 88 % 16.38 C
1869 17-08-2019 11:40:00 18.5 C 88 % 16.48 C
1870 17-08-2019 11:45:00 18.6 C 87 % 16.39 C
1871 17-08-2019 11:50:00 18.7 C 88 % 16.67 C
1872 17-08-2019 11:55:00 18.8 C 86 % 16.41 C
1873 17-08-2019 12:00:00 18.9 C 86 % 16.51 C
1874 17-08-2019 12:05:00 18.9 C 87 % 16.69 C
1875 17-08-2019 12:10:00 19 C 87 % 16.79 C
Sensor: Nr:Datum:Temp:Feuchte:Taupunkt:
Aussen-T/F 1876 17-08-2019 12:15:00 18.9 C 87 % 16.69 C
1877 17-08-2019 12:20:00 18.9 C 86 % 16.51 C
1878 17-08-2019 12:25:00 19.1 C 86 % 16.7 C
1879 17-08-2019 12:30:00 19.1 C 85 % 16.52 C
1880 17-08-2019 12:35:00 19.3 C 85 % 16.72 C
1881 17-08-2019 12:40:00 19.5 C 84 % 16.72 C
1882 17-08-2019 12:45:00 19.7 C 84 % 16.92 C
1883 17-08-2019 12:50:00 19.9 C 84 % 17.12 C
1884 17-08-2019 12:55:00 20.1 C 81 % 16.74 C
1885 17-08-2019 13:00:00 20.3 C 80 % 16.74 C
1886 17-08-2019 13:05:00 20.5 C 79 % 16.73 C
1887 17-08-2019 13:10:00 20.6 C 76 % 16.22 C
1888 17-08-2019 13:15:00 20.5 C 78 % 16.53 C
1889 17-08-2019 13:20:00 20.5 C 76 % 16.12 C
1890 17-08-2019 13:25:00 20.6 C 77 % 16.43 C
1891 17-08-2019 13:30:00 20.7 C 76 % 16.32 C
1892 17-08-2019 13:35:00 20.8 C 76 % 16.41 C
1893 17-08-2019 13:40:00 21 C 75 % 16.4 C
1894 17-08-2019 13:45:00 21 C 74 % 16.19 C
1895 17-08-2019 13:50:00 20.9 C 75 % 16.3 C
1896 17-08-2019 13:55:00 20.8 C 74 % 16 C
1897 17-08-2019 14:00:00 20.8 C 75 % 16.21 C
1898 17-08-2019 14:05:00 20.8 C 76 % 16.41 C
1899 17-08-2019 14:10:00 20.8 C 75 % 16.21 C
1900 17-08-2019 14:15:00 20.9 C 74 % 16.09 C
Sensor: Nr:Datum:Temp:Feuchte:Taupunkt:
Aussen-T/F 1901 17-08-2019 14:20:00 20.9 C 75 % 16.3 C
1902 17-08-2019 14:25:00 21 C 76 % 16.61 C
1903 17-08-2019 14:30:00 21.1 C 75 % 16.5 C
1904 17-08-2019 14:35:00 21.1 C 75 % 16.5 C
1905 17-08-2019 14:40:00 21.1 C 75 % 16.5 C
1906 17-08-2019 14:45:00 21.1 C 74 % 16.29 C
1907 17-08-2019 14:50:00 21.2 C 75 % 16.59 C
1908 17-08-2019 14:55:00 21.2 C 74 % 16.38 C
1909 17-08-2019 15:00:00 21.3 C 74 % 16.48 C
1910 17-08-2019 15:05:00 21.4 C 74 % 16.57 C
1911 17-08-2019 15:10:00 21.4 C 74 % 16.57 C
1912 17-08-2019 15:15:00 21.4 C 74 % 16.57 C
1913 17-08-2019 15:20:00 21.4 C 74 % 16.57 C
1914 17-08-2019 15:25:00 21.3 C 74 % 16.48 C
1915 17-08-2019 15:30:00 21.2 C 75 % 16.59 C
1916 17-08-2019 15:35:00 21.2 C 77 % 17.01 C
1917 17-08-2019 15:40:00 21.2 C 76 % 16.8 C
1918 17-08-2019 15:45:00 21.3 C 75 % 16.69 C
1919 17-08-2019 15:50:00 21.3 C 75 % 16.69 C
1920 17-08-2019 15:55:00 21.4 C 76 % 16.99 C
1921 17-08-2019 16:00:00 21.4 C 75 % 16.79 C
1922 17-08-2019 16:05:00 21.4 C 75 % 16.79 C
1923 17-08-2019 16:10:00 21.4 C 75 % 16.79 C
1924 17-08-2019 16:15:00 21.3 C 75 % 16.69 C
1925 17-08-2019 16:20:00 21.1 C 75 % 16.5 C
Sensor: Nr:Datum:Temp:Feuchte:Taupunkt:
Aussen-T/F 1926 17-08-2019 16:25:00 20.8 C 76 % 16.41 C
1927 17-08-2019 16:30:00 20.8 C 77 % 16.62 C
1928 17-08-2019 16:35:00 20.7 C 76 % 16.32 C
1929 17-08-2019 16:40:00 20.7 C 77 % 16.52 C
1930 17-08-2019 16:45:00 20.8 C 77 % 16.62 C
1931 17-08-2019 16:50:00 20.8 C 76 % 16.41 C
1932 17-08-2019 16:55:00 20.8 C 77 % 16.62 C
1933 17-08-2019 17:00:00 20.7 C 78 % 16.73 C
1934 17-08-2019 17:05:00 20.7 C 79 % 16.93 C
1935 17-08-2019 17:10:00 20.6 C 77 % 16.43 C
1936 17-08-2019 17:15:00 20.5 C 77 % 16.33 C
1937 17-08-2019 17:20:00 20.4 C 77 % 16.23 C
1938 17-08-2019 17:25:00 20.4 C 76 % 16.03 C
1939 17-08-2019 17:30:00 20.4 C 78 % 16.44 C
1940 17-08-2019 17:35:00 20.4 C 77 % 16.23 C
1941 17-08-2019 17:40:00 20.3 C 78 % 16.34 C
1942 17-08-2019 17:45:00 20.3 C 79 % 16.54 C
1943 17-08-2019 17:50:00 20.3 C 79 % 16.54 C
1944 17-08-2019 17:55:00 20.3 C 80 % 16.74 C
1945 17-08-2019 18:00:00 20.3 C 79 % 16.54 C
1946 17-08-2019 18:05:00 20.3 C 80 % 16.74 C
1947 17-08-2019 18:10:00 20.3 C 81 % 16.93 C
1948 17-08-2019 18:15:00 20.2 C 82 % 17.03 C
1949 17-08-2019 18:20:00 20.1 C 83 % 17.12 C
1950 17-08-2019 18:25:00 20.1 C 83 % 17.12 C
Sensor: Nr:Datum:Temp:Feuchte:Taupunkt:
Aussen-T/F 1951 17-08-2019 18:30:00 19.9 C 84 % 17.12 C
1952 17-08-2019 18:35:00 19.8 C 85 % 17.21 C
1953 17-08-2019 18:40:00 19.7 C 84 % 16.92 C
1954 17-08-2019 18:45:00 19.7 C 85 % 17.11 C
1955 17-08-2019 18:50:00 19.7 C 85 % 17.11 C
1956 17-08-2019 18:55:00 19.6 C 86 % 17.19 C
1957 17-08-2019 19:00:00 19.6 C 87 % 17.38 C
1958 17-08-2019 19:05:00 19.5 C 87 % 17.28 C
1959 17-08-2019 19:10:00 19.4 C 86 % 17 C
1960 17-08-2019 19:15:00 19.3 C 87 % 17.08 C
1961 17-08-2019 19:20:00 19.2 C 88 % 17.16 C
1962 17-08-2019 19:25:00 19.1 C 88 % 17.07 C
1963 17-08-2019 19:30:00 19.1 C 88 % 17.07 C
1964 17-08-2019 19:35:00 19 C 89 % 17.15 C
1965 17-08-2019 19:40:00 18.9 C 89 % 17.05 C
1966 17-08-2019 19:45:00 18.9 C 90 % 17.22 C
1967 17-08-2019 19:50:00 18.8 C 90 % 17.12 C
1968 17-08-2019 19:55:00 18.7 C 90 % 17.03 C
1969 17-08-2019 20:00:00 18.7 C 90 % 17.03 C
1970 17-08-2019 20:05:00 18.6 C 90 % 16.93 C
1971 17-08-2019 20:10:00 18.6 C 91 % 17.1 C
1972 17-08-2019 20:15:00 18.4 C 91 % 16.9 C
1973 17-08-2019 20:20:00 18.4 C 91 % 16.9 C
1974 17-08-2019 20:25:00 18.3 C 91 % 16.81 C
1975 17-08-2019 20:30:00 18.3 C 91 % 16.81 C
Sensor: Nr:Datum:Temp:Feuchte:Taupunkt:
Aussen-T/F 1976 17-08-2019 20:35:00 18.2 C 91 % 16.71 C
1977 17-08-2019 20:40:00 18.1 C 91 % 16.61 C
1978 17-08-2019 20:45:00 18.1 C 92 % 16.78 C
1979 17-08-2019 20:50:00 18.1 C 92 % 16.78 C
1980 17-08-2019 20:55:00 18.1 C 92 % 16.78 C
1981 17-08-2019 21:00:00 18 C 92 % 16.68 C
1982 17-08-2019 21:05:00 17.9 C 92 % 16.58 C
1983 17-08-2019 21:10:00 17.9 C 92 % 16.58 C
1984 17-08-2019 21:15:00 17.9 C 92 % 16.58 C
1985 17-08-2019 21:20:00 17.8 C 93 % 16.65 C
1986 17-08-2019 21:25:00 17.8 C 93 % 16.65 C
1987 17-08-2019 21:30:00 17.8 C 93 % 16.65 C
1988 17-08-2019 21:35:00 17.8 C 93 % 16.65 C
1989 17-08-2019 21:40:00 17.8 C 93 % 16.65 C
1990 17-08-2019 21:45:00 17.8 C 93 % 16.65 C
1991 17-08-2019 21:50:00 17.8 C 93 % 16.65 C
1992 17-08-2019 21:55:00 17.8 C 93 % 16.65 C
1993 17-08-2019 22:00:00 17.8 C 94 % 16.82 C
1994 17-08-2019 22:05:00 17.8 C 94 % 16.82 C
1995 17-08-2019 22:10:00 17.8 C 94 % 16.82 C
1996 17-08-2019 22:15:00 17.8 C 94 % 16.82 C
1997 17-08-2019 22:20:00 17.8 C 94 % 16.82 C
1998 17-08-2019 22:25:00 17.8 C 94 % 16.82 C
1999 17-08-2019 22:30:00 17.7 C 94 % 16.72 C
2000 17-08-2019 22:35:00 17.7 C 94 % 16.72 C
Sensor: Nr:Datum:Temp:Feuchte:Taupunkt:
Aussen-T/F 2001 17-08-2019 22:40:00 17.7 C 94 % 16.72 C
2002 17-08-2019 22:45:00 17.7 C 94 % 16.72 C
2003 17-08-2019 22:50:00 17.7 C 94 % 16.72 C
2004 17-08-2019 22:55:00 17.6 C 94 % 16.62 C
2005 17-08-2019 23:00:00 17.6 C 94 % 16.62 C
2006 17-08-2019 23:05:00 17.6 C 94 % 16.62 C
2007 17-08-2019 23:10:00 17.6 C 94 % 16.62 C
2008 17-08-2019 23:15:00 17.6 C 94 % 16.62 C
2009 17-08-2019 23:20:00 17.5 C 95 % 16.69 C
2010 17-08-2019 23:25:00 17.5 C 95 % 16.69 C
2011 17-08-2019 23:30:00 17.5 C 95 % 16.69 C
2012 17-08-2019 23:35:00 17.5 C 95 % 16.69 C
2013 17-08-2019 23:40:00 17.5 C 95 % 16.69 C
2014 17-08-2019 23:45:00 17.5 C 95 % 16.69 C
2015 17-08-2019 23:50:00 17.5 C 95 % 16.69 C
2016 17-08-2019 23:55:00 17.4 C 95 % 16.59 C

Legende:
   Min
   Max


Maximal/Minimal-Werte vom 11.08.2019 - 17.08.2019

Sensor Min Max Avg
Temp
(Aussen-T/F)
10.5 °C
14-08-2019  06:25:00
24.9 °C
16-08-2019  18:05:00
17.01 °C
Feuchte
(Aussen-T/F)
43 %
14-08-2019  17:15:00
97 %
14-08-2019  08:40:00
82.27 %
Taupunkt
(Aussen-T/F)
8.73 C
13-08-2019  13:40:00
18.36 C
15-08-2019  16:15:00
13.62 C

Die Daten stammen von einer Davis Vantage Pro 2 Wetter-Station und werden unter Linux mit der Software wview2wettercgi und aufbereitet. Alle Angaben erfolgen ohne Gewähr für ihre Vollständigkeit oder Richtigkeit.
Kontakt: Rainer Krienke krienke@uni-koblenz.de . Meine Webseiten an der Uni Koblenz oder privat.
Version: $Revision: 0.78 $